Provisional Data: Susquehanna River near Binghamton, NY


Please select a monitoring station.
Please select start date.
Please select start date.

<
Toggle Unit: C/F Toggle Unit: C/F
Sample Time Temperature (C) Temperature (F) Specific Conductivity (mS/cm) pH   Turbidity (NTU+) DO (mg/L)
4/13/2022 12:00:00 AM 6.7447 24.3408
4/13/2022 12:15:00 AM 6.7443 24.3412
4/13/2022 12:30:00 AM 6.7452 24.0526
4/13/2022 12:45:00 AM 6.7448 23.9337
4/13/2022 1:00:00 AM 6.7446 23.9907
4/13/2022 1:15:00 AM 6.7447 24.018
4/13/2022 1:30:00 AM 6.7449 24.7518
4/13/2022 1:45:00 AM 6.7444 24.8968
4/13/2022 2:00:00 AM 6.7454 24.5184
4/13/2022 2:15:00 AM 6.7453 24.5992
4/13/2022 2:30:00 AM 6.7472 24.586
4/13/2022 2:45:00 AM 6.7438 24.6002
4/13/2022 3:00:00 AM 6.749 23.6899
4/13/2022 3:15:00 AM 6.7501 23.1073
4/13/2022 3:30:00 AM 6.7502 22.9185
4/13/2022 3:45:00 AM 6.7497 22.8993
4/13/2022 4:00:00 AM 6.7497 22.8758
4/13/2022 4:15:00 AM 6.7514 23.8968
4/13/2022 4:30:00 AM 6.752 24.1539
4/13/2022 4:45:00 AM 6.7524 23.6767
4/13/2022 5:00:00 AM 6.7543 23.3809
4/13/2022 5:15:00 AM 6.7547 23.3582
4/13/2022 5:30:00 AM 6.7549 23.0339
4/13/2022 5:45:00 AM 6.755 23.2
4/13/2022 6:00:00 AM 6.7544 21.904
4/13/2022 6:15:00 AM 6.7545 21.3851
4/13/2022 6:30:00 AM 6.7542 20.9431
4/13/2022 6:45:00 AM 6.7542 20.5938
4/13/2022 7:00:00 AM 6.7543 20.1335
4/13/2022 7:15:00 AM 6.7543 19.7222
4/13/2022 7:30:00 AM 6.7539 19.454
4/13/2022 7:45:00 AM 6.7544 19.2239
4/13/2022 8:00:00 AM 6.7544 18.9861
4/13/2022 8:15:00 AM 6.7546 19.4821
4/13/2022 8:30:00 AM 6.7546 19.0041
4/13/2022 8:45:00 AM 6.7536 18.8
4/13/2022 9:00:00 AM 6.7547 18.3736
4/13/2022 9:15:00 AM 6.7546 18.7052
4/13/2022 9:30:00 AM 6.7546 25.8552
4/13/2022 9:45:00 AM 6.7571 21.4408
4/13/2022 10:00:00 AM 6.7554 18.6437
4/13/2022 10:15:00 AM 6.7558 18.0538
4/13/2022 10:30:00 AM 6.7548 17.9342
4/13/2022 10:45:00 AM 6.7542 17.7664
4/13/2022 11:00:00 AM 6.7546 17.4732
4/13/2022 11:15:00 AM 6.7542 17.3394
4/13/2022 11:30:00 AM 6.7551 17.1225
4/13/2022 11:45:00 AM 6.7564 17
4/13/2022 12:00:00 PM 6.7592 17.167
4/13/2022 12:15:00 PM 6.7591 17.038
4/13/2022 12:30:00 PM 6.7594 16.6052
4/13/2022 12:45:00 PM 6.7614 16.6878
4/13/2022 1:00:00 PM 6.7599 16.9145
4/13/2022 1:15:00 PM 6.7593 16.9763
4/13/2022 1:30:00 PM 6.7601 16.7919
4/13/2022 1:45:00 PM 6.7613 16.6088
4/13/2022 2:00:00 PM 6.7606 16.5149
4/13/2022 2:15:00 PM 6.7636 16.4959
4/13/2022 2:30:00 PM 6.7642 16.384
4/13/2022 2:45:00 PM 6.7643 16.4761
4/13/2022 3:00:00 PM 6.7661 16.3776
4/13/2022 3:15:00 PM 6.7687 16.2933
4/13/2022 3:30:00 PM 6.769 17.0232
4/13/2022 3:45:00 PM 6.7761 21.761
4/13/2022 4:00:00 PM 6.7701 19.5919
4/13/2022 4:15:00 PM 6.7732 18.5108
4/13/2022 4:30:00 PM 6.7736 18.4491
4/13/2022 4:45:00 PM 6.7738 18.4894
4/13/2022 5:00:00 PM 6.7747 17.5666
4/13/2022 5:15:00 PM 6.7754 17.5142
4/13/2022 5:30:00 PM 6.7775 17.3586
4/13/2022 5:45:00 PM 6.7774 18.8999
4/13/2022 6:00:00 PM 6.7786 17.2037
4/13/2022 6:15:00 PM 6.7808 16.9055
4/13/2022 6:30:00 PM 6.7828 16.9504
4/13/2022 6:45:00 PM 6.7838 16.463
4/13/2022 7:00:00 PM 6.7831 16.6665
4/13/2022 7:15:00 PM 6.7833 16.9444
4/13/2022 7:30:00 PM 6.7837 16.9106
4/13/2022 7:45:00 PM 6.7837 17.4258
4/13/2022 8:00:00 PM 6.7835 17.619
4/13/2022 8:15:00 PM 6.7835 17.6693
4/13/2022 8:30:00 PM 6.7833 17.4796
4/13/2022 8:45:00 PM 6.7844 17.2
4/13/2022 9:00:00 PM 6.7837 18.5851
4/13/2022 9:15:00 PM 6.783 18.6554
4/13/2022 9:30:00 PM 6.7835 18.0708
4/13/2022 9:45:00 PM 6.7835 17.6235
4/13/2022 10:00:00 PM 6.783 17.476
4/13/2022 10:15:00 PM 6.7832 17.3674
4/13/2022 10:30:00 PM 6.7836 16.9465
4/13/2022 10:45:00 PM 6.7839 17.1342
4/13/2022 11:00:00 PM 6.7831 17.1494
4/13/2022 11:15:00 PM 6.783 17.0929
4/13/2022 11:30:00 PM 6.7831 16.9179
4/13/2022 11:45:00 PM 6.7802 17
4/14/2022 12:00:00 AM 6.7827 18.0005
4/14/2022 12:15:00 AM 6.7835 18.7012
4/14/2022 12:30:00 AM 6.783 18.7396
4/14/2022 12:45:00 AM 6.7831 18.2744
4/14/2022 1:00:00 AM 6.7832 17.9327
4/14/2022 1:15:00 AM 6.7827 18.0267
4/14/2022 1:30:00 AM 6.7828 18.54
4/14/2022 1:45:00 AM 6.7831 19.1516
4/14/2022 2:00:00 AM 6.7832 19.8695
4/14/2022 2:15:00 AM 6.7833 20.8304
4/14/2022 2:30:00 AM 6.7836 21.176
4/14/2022 2:45:00 AM 6.783 21.1001
4/14/2022 3:00:00 AM 6.7812 20.5075
4/14/2022 3:15:00 AM 6.7834 19.7385
4/14/2022 3:30:00 AM 6.7837 19.5294
4/14/2022 3:45:00 AM 6.7836 20.2259
4/14/2022 4:00:00 AM 6.7835 19.5691
4/14/2022 4:15:00 AM 6.7829 19.1592
4/14/2022 4:30:00 AM 6.7834 19.7705
4/14/2022 4:45:00 AM 6.7824 20.7839
4/14/2022 5:00:00 AM 6.7817 20.5525
4/14/2022 5:15:00 AM 6.7792 18.6426
4/14/2022 5:30:00 AM 6.7786 17.6758
4/14/2022 5:45:00 AM 6.7774 17.4
4/14/2022 6:00:00 AM 6.7783 16.9614
4/14/2022 6:15:00 AM 6.7782 16.6542
4/14/2022 6:30:00 AM 6.7784 16.2613
4/14/2022 6:45:00 AM 6.7779 15.7604
4/14/2022 7:00:00 AM 6.777 15.255
4/14/2022 7:15:00 AM 6.7744 14.8926
4/14/2022 7:30:00 AM 6.7739 14.4545
4/14/2022 7:45:00 AM 6.7739 14.2578
4/14/2022 8:00:00 AM 6.7731 13.9016
4/14/2022 8:15:00 AM 6.7723 13.6953
4/14/2022 8:30:00 AM 6.7715 13.3774
4/14/2022 8:45:00 AM 6.7676 13.3
4/14/2022 9:00:00 AM 6.7694 12.9159
4/14/2022 9:15:00 AM 6.7685 12.9073
4/14/2022 9:30:00 AM 6.769 13.0293
4/14/2022 9:45:00 AM 6.769 13.0884
4/14/2022 10:00:00 AM 6.7691 12.8354
4/14/2022 10:15:00 AM 6.7685 12.7156
4/14/2022 10:30:00 AM 6.7684 12.5063
4/14/2022 10:45:00 AM 6.7688 12.4233
4/14/2022 11:00:00 AM 6.7686 12.2979
4/14/2022 11:15:00 AM 6.7695 12.2861
4/14/2022 11:30:00 AM 6.7702 12.2227
4/14/2022 11:45:00 AM 6.7676 12.2
4/14/2022 12:00:00 PM 6.7733 12.7094
4/14/2022 12:15:00 PM 6.7738 14.7391
4/14/2022 12:30:00 PM 6.7737 14.9542
4/14/2022 12:45:00 PM 6.7747 13.9806
4/14/2022 1:00:00 PM 6.7776 12.7163
4/14/2022 1:15:00 PM 6.7787 11.9523
4/14/2022 1:30:00 PM 6.7809 13.9886
4/14/2022 1:45:00 PM 6.7832 19.295
4/14/2022 2:00:00 PM 6.7832 19.3886
4/14/2022 2:15:00 PM 6.783 19.0974
4/14/2022 2:30:00 PM 6.7836 18.3201
4/14/2022 2:45:00 PM 6.7772 41.5163
4/14/2022 3:00:00 PM 6.7692 40.9757
4/14/2022 3:15:00 PM 6.7655 35.1634
4/14/2022 3:30:00 PM 6.766 29.1617
4/14/2022 3:45:00 PM 6.7683 24.1158
4/14/2022 4:00:00 PM 6.7748 23.1736
4/14/2022 4:15:00 PM 6.776 18.4426
4/14/2022 4:30:00 PM 6.7807 16.2731
4/14/2022 4:45:00 PM 6.7838 15.0625
4/14/2022 5:00:00 PM 6.7881 13.9222
4/14/2022 5:15:00 PM 6.7883 13.3418
4/14/2022 5:30:00 PM 6.7901 12.8039
4/14/2022 5:45:00 PM 6.79 12.5999
4/14/2022 6:00:00 PM 6.7933 12.2044
4/14/2022 6:15:00 PM 6.7935 11.6497
4/14/2022 6:30:00 PM 6.7934 11.7221
4/14/2022 6:45:00 PM 6.7937 11.6019
4/14/2022 7:00:00 PM 6.7947 13.3327
4/14/2022 7:15:00 PM 6.7955 13.9024
4/14/2022 7:30:00 PM 6.7955 11.6787
4/14/2022 7:45:00 PM 6.7951 11.5182
4/14/2022 8:00:00 PM 6.7974 11.8937
4/14/2022 8:15:00 PM 6.797 12.2662
4/14/2022 8:30:00 PM 6.797 12.743
4/14/2022 8:45:00 PM 6.7984 13.1
4/14/2022 9:00:00 PM 6.795 13.7321
4/14/2022 9:15:00 PM 6.7947 14.0554
4/14/2022 9:30:00 PM 6.7939 14.1041
4/14/2022 9:45:00 PM 6.7937 14.1683
4/14/2022 10:00:00 PM 6.7934 13.67
4/14/2022 10:15:00 PM 6.7935 13.895
4/14/2022 10:30:00 PM 6.793 13.4946
4/14/2022 10:45:00 PM 6.7937 12.9981
4/14/2022 11:00:00 PM 6.7934 12.4271
4/14/2022 11:15:00 PM 6.7933 12.2448
4/14/2022 11:30:00 PM 6.7931 12.252
4/14/2022 11:45:00 PM 6.7914 12.4
4/15/2022 12:00:00 AM 6.7936 12.6714
4/15/2022 12:15:00 AM 6.7933 13.1477
4/15/2022 12:30:00 AM 6.7933 13.174
4/15/2022 12:45:00 AM 6.7936 13.2706
4/15/2022 1:00:00 AM 6.7936 13.1192
4/15/2022 1:15:00 AM 6.7937 12.777
4/15/2022 1:30:00 AM 6.792 14.6948
4/15/2022 1:45:00 AM 6.7909 15.8052
4/15/2022 2:00:00 AM 6.7887 14.5431
4/15/2022 2:15:00 AM 6.7879 14.6669
4/15/2022 2:30:00 AM 6.7886 13.6631
4/15/2022 2:45:00 AM 6.79 13.1999
4/15/2022 3:00:00 AM 6.7884 13.5248
4/15/2022 3:15:00 AM 6.7886 16.6556
4/15/2022 3:30:00 AM 6.7883 15.5995
4/15/2022 3:45:00 AM 6.7885 13.3509
4/15/2022 4:00:00 AM 6.7888 12.8166
4/15/2022 4:15:00 AM 6.7888 12.8317
4/15/2022 4:30:00 AM 6.7887 14.022
4/15/2022 4:45:00 AM 6.7885 13.6615
4/15/2022 5:00:00 AM 6.7883 12.2467
4/15/2022 5:15:00 AM 6.7885 11.5913
4/15/2022 5:30:00 AM 6.7887 11.4847
4/15/2022 5:45:00 AM 6.7914 11.6
4/15/2022 6:00:00 AM 6.7913 15.1899
4/15/2022 6:15:00 AM 6.7923 18.8478
4/15/2022 6:30:00 AM 6.7927 19.3393
4/15/2022 6:45:00 AM 6.7933 18.8685
4/15/2022 7:00:00 AM 6.7931 18.8023
4/15/2022 7:15:00 AM 6.7934 18.6073
4/15/2022 7:30:00 AM 6.7939 18.5518
4/15/2022 7:45:00 AM 6.7934 18.4014
4/15/2022 8:00:00 AM 6.7934 18.3508
4/15/2022 8:15:00 AM 6.7942 18.1141
4/15/2022 8:30:00 AM 6.7981 18.196
4/15/2022 8:45:00 AM 6.7956 18.0999
4/15/2022 9:00:00 AM 6.798 18.0127
4/15/2022 9:15:00 AM 6.7987 17.8489
4/15/2022 9:30:00 AM 6.8026 17.6645
4/15/2022 9:45:00 AM 6.8036 17.9654
4/15/2022 10:00:00 AM 6.8017 17.8939
4/15/2022 10:15:00 AM 6.8 18.0652
4/15/2022 10:30:00 AM 6.7993 17.8803
4/15/2022 10:45:00 AM 6.7982 17.735
4/15/2022 11:00:00 AM 6.7989 17.6934
4/15/2022 11:15:00 AM 6.7982 17.7624
4/15/2022 11:30:00 AM 6.7982 17.5318
4/15/2022 11:45:00 AM 6.7998 17.6
4/15/2022 12:00:00 PM 6.7984 18.2044
4/15/2022 12:15:00 PM 6.799 18.5893
4/15/2022 12:30:00 PM 6.7985 14.1673
4/15/2022 12:45:00 PM 6.7988 14.9975
4/15/2022 1:00:00 PM 6.7981 22.4156
4/15/2022 1:15:00 PM 6.7948 23.5697
4/15/2022 1:30:00 PM 6.7944 19.2165
4/15/2022 1:45:00 PM 6.7965 17.2612
4/15/2022 2:00:00 PM 6.7982 15.0951
4/15/2022 2:15:00 PM 6.8006 13.8343
4/15/2022 2:30:00 PM 6.8041 14.267
4/15/2022 2:45:00 PM 6.8084 14.6047
4/15/2022 3:00:00 PM 6.8094 12.7903
4/15/2022 3:15:00 PM 6.8108 14.2034
4/15/2022 3:30:00 PM 6.8125 19.0714
4/15/2022 3:45:00 PM 6.8133 17.7953
4/15/2022 4:00:00 PM 6.8182 15.0183
4/15/2022 4:15:00 PM 6.8138 12.4602
4/15/2022 4:30:00 PM 6.8181 11.7868
4/15/2022 4:45:00 PM 6.8223 15.5639
4/15/2022 5:00:00 PM 6.824 19.0107
4/15/2022 5:15:00 PM 6.827 18.5458
4/15/2022 5:30:00 PM 6.8275 18.3316
4/15/2022 5:45:00 PM 6.825 18.4
4/15/2022 6:00:00 PM 6.8285 14.0047
4/15/2022 6:15:00 PM 6.828 15.0027
4/15/2022 6:30:00 PM 6.8276 13.1023
4/15/2022 6:45:00 PM 6.8278 18.8362
4/15/2022 7:00:00 PM 6.8279 18.4254
4/15/2022 7:15:00 PM 6.8283 18.7394
4/15/2022 7:30:00 PM 6.8281 17.8129
4/15/2022 7:45:00 PM 6.828 18.2009
4/15/2022 8:00:00 PM 6.8284 19.3667
4/15/2022 8:15:00 PM 6.8278 18.7623
4/15/2022 8:30:00 PM 6.8284 18.6982
4/15/2022 8:45:00 PM 6.8292 18.7999
4/15/2022 9:00:00 PM 6.828 19.2759
4/15/2022 9:15:00 PM 6.8279 18.3326
4/15/2022 9:30:00 PM 6.8273 14.6682
4/15/2022 9:45:00 PM 6.8273 19.166
4/15/2022 10:00:00 PM 6.8254 19.297
4/15/2022 10:15:00 PM 6.8246 14.9553
4/15/2022 10:30:00 PM 6.8231 13.3461
4/15/2022 10:45:00 PM 6.8225 15.7434
4/15/2022 11:00:00 PM 6.8228 15.1851
4/15/2022 11:15:00 PM 6.8232 13.4816
4/15/2022 11:30:00 PM 6.8229 12.8676
4/15/2022 11:45:00 PM 6.8208 12.1
4/16/2022 12:00:00 AM 6.8226 12.129
4/16/2022 12:15:00 AM 6.8231 11.3956
4/16/2022 12:30:00 AM 6.8233 11.7605
4/16/2022 12:45:00 AM 6.8233 11.3063
4/16/2022 1:00:00 AM 6.8234 11.9819
4/16/2022 1:15:00 AM 6.8227 12.3724
4/16/2022 1:30:00 AM 6.8229 14.2374
4/16/2022 1:45:00 AM 6.8231 13.8123
4/16/2022 2:00:00 AM 6.8227 15.4386
4/16/2022 2:15:00 AM 6.8234 18.3608
4/16/2022 2:30:00 AM 6.8233 18.5811
4/16/2022 2:45:00 AM 6.8236 13.2019
4/16/2022 3:00:00 AM 6.8224 11.8437
4/16/2022 3:15:00 AM 6.8208 11.4907
4/16/2022 3:30:00 AM 6.8187 17.5542
4/16/2022 3:45:00 AM 6.818 15.3607
4/16/2022 4:00:00 AM 6.818 16.684
4/16/2022 4:15:00 AM 6.8182 18.9932
4/16/2022 4:30:00 AM 6.8183 18.5829
4/16/2022 4:45:00 AM 6.818 13.6469
4/16/2022 5:00:00 AM 6.8165 12.7063
4/16/2022 5:15:00 AM 6.8152 16.9035
4/16/2022 5:30:00 AM 6.8152 15.0436
4/16/2022 5:45:00 AM 6.818 14.3
4/16/2022 6:00:00 AM 6.8147 18.7305
4/16/2022 6:15:00 AM 6.8137 17.9699
4/16/2022 6:30:00 AM 6.8134 17.5346
4/16/2022 6:45:00 AM 6.8135 16.8156
4/16/2022 7:00:00 AM 6.8127 16.1977
4/16/2022 7:15:00 AM 6.8135 16.1451
4/16/2022 7:30:00 AM 6.8126 15.8571
4/16/2022 7:45:00 AM 6.8112 15.6686
4/16/2022 8:00:00 AM 6.8085 15.5567
4/16/2022 8:15:00 AM 6.8088 15.5055
4/16/2022 8:30:00 AM 6.8086 15.2794
4/16/2022 8:45:00 AM 6.8068 15.3
4/16/2022 9:00:00 AM 6.8086 15.2143
4/16/2022 9:15:00 AM 6.8087 15.3728
4/16/2022 9:30:00 AM 6.8088 15.3099
4/16/2022 9:45:00 AM 6.8087 15.3245
4/16/2022 10:00:00 AM 6.8084 15.3264
4/16/2022 10:15:00 AM 6.809 15.1532
4/16/2022 10:30:00 AM 6.8087 14.8449
4/16/2022 10:45:00 AM 6.8104 14.8131
4/16/2022 11:00:00 AM 6.8099 14.6674
4/16/2022 11:15:00 AM 6.8126 14.6587
4/16/2022 11:30:00 AM 6.8134 14.7438
4/16/2022 11:45:00 AM 6.8124 14.7
4/16/2022 12:00:00 PM 6.8182 15.0952
4/16/2022 12:15:00 PM 6.8195 15.3017
4/16/2022 12:30:00 PM 6.8234 15.0449
4/16/2022 12:45:00 PM 6.8254 14.8771
4/16/2022 1:00:00 PM 6.8279 14.5955
4/16/2022 1:15:00 PM 6.8319 14.5228
4/16/2022 1:30:00 PM 6.8325 14.5228
4/16/2022 1:45:00 PM 6.8335 14.6142
4/16/2022 2:00:00 PM 6.8378 14.5125
4/16/2022 2:15:00 PM 6.837 14.6472
4/16/2022 2:30:00 PM 6.8375 14.964
4/16/2022 2:45:00 PM 6.8372 15.2669
4/16/2022 3:00:00 PM 6.8378 15.37
4/16/2022 3:15:00 PM 6.8383 15.6723
4/16/2022 3:30:00 PM 6.8405 16.1472
4/16/2022 3:45:00 PM 6.839 14.8594
4/16/2022 4:00:00 PM 6.8395 11.6337
4/16/2022 4:15:00 PM 6.843 17.7222
4/16/2022 4:30:00 PM 6.8474 17.8776
4/16/2022 4:45:00 PM 6.8501 18.0092
4/16/2022 5:00:00 PM 6.8541 17.3751
4/16/2022 5:15:00 PM 6.8583 14.212
4/16/2022 5:30:00 PM 6.8628 20.3176
4/16/2022 5:45:00 PM 6.8614 24.5
4/16/2022 6:00:00 PM 6.8679 42.2666
4/16/2022 6:15:00 PM 6.8683 51.7041
4/16/2022 6:30:00 PM 6.8691 49.914
4/16/2022 6:45:00 PM 6.869 44.2312
4/16/2022 7:00:00 PM 6.8688 38.7672
4/16/2022 7:15:00 PM 6.868 33.8702
4/16/2022 7:30:00 PM 6.8678 29.8502
4/16/2022 7:45:00 PM 6.8675 27.3409
4/16/2022 8:00:00 PM 6.8659 24.216
4/16/2022 8:15:00 PM 6.8627 22.89
4/16/2022 8:30:00 PM 6.8622 20.0348
4/16/2022 8:45:00 PM 6.86 19
4/16/2022 9:00:00 PM 6.8575 18.9326
4/16/2022 9:15:00 PM 6.8564 18.095
4/16/2022 9:30:00 PM 6.8532 17.0115
4/16/2022 9:45:00 PM 6.8524 16.1709
4/16/2022 10:00:00 PM 6.8525 14.1887
4/16/2022 10:15:00 PM 6.8529 12.6742
4/16/2022 10:30:00 PM 6.8526 11.5094
4/16/2022 10:45:00 PM 6.8516 12.6828
4/16/2022 11:00:00 PM 6.8515 12.5537
4/16/2022 11:15:00 PM 6.851 17.8875
4/16/2022 11:30:00 PM 6.8526 18.4918
4/16/2022 11:45:00 PM 6.8544 18.6
4/17/2022 12:00:00 AM 6.849 18.0453
4/17/2022 12:15:00 AM 6.8471 18.2639
4/17/2022 12:30:00 AM 6.8475 18.1096
4/17/2022 12:45:00 AM 6.8479 18.132
4/17/2022 1:00:00 AM 6.8478 18.0546
4/17/2022 1:15:00 AM 6.8473 18.0535
4/17/2022 1:30:00 AM 6.8478 18.0647
4/17/2022 1:45:00 AM 6.8459 18.0378
4/17/2022 2:00:00 AM 6.8433 19.0153
4/17/2022 2:15:00 AM 6.8424 15.5014
4/17/2022 2:30:00 AM 6.8425 18.3639
4/17/2022 2:45:00 AM 6.8432 18.2998
4/17/2022 3:00:00 AM 6.8426 17.932
4/17/2022 3:15:00 AM 6.8424 17.6108
4/17/2022 3:30:00 AM 6.8397 17.5575
4/17/2022 3:45:00 AM 6.838 17.3699
4/17/2022 4:00:00 AM 6.8379 17.75
4/17/2022 4:15:00 AM 6.838 18.4696
4/17/2022 4:30:00 AM 6.8379 17.8535
4/17/2022 4:45:00 AM 6.8377 17.1386
4/17/2022 5:00:00 AM 6.8376 16.6286
4/17/2022 5:15:00 AM 6.8377 16.5829
4/17/2022 5:30:00 AM 6.8377 16.174
4/17/2022 5:45:00 AM 6.8404 16.2
4/17/2022 6:00:00 AM 6.8378 15.8756
4/17/2022 6:15:00 AM 6.8374 15.551
4/17/2022 6:30:00 AM 6.8377 15.817
4/17/2022 6:45:00 AM 6.8372 15.3892
4/17/2022 7:00:00 AM 6.8363 16.098
4/17/2022 7:15:00 AM 6.8381 14.5659
4/17/2022 7:30:00 AM 6.8383 14.2101
4/17/2022 7:45:00 AM 6.8379 14.0027
4/17/2022 8:00:00 AM 6.8382 13.9457
4/17/2022 8:15:00 AM 6.8382 13.9899
4/17/2022 8:30:00 AM 6.8387 13.8694
4/17/2022 8:45:00 AM 6.8348 13.9
4/17/2022 9:00:00 AM 6.8431 13.6947
4/17/2022 9:15:00 AM 6.8429 13.6107
4/17/2022 9:30:00 AM 6.8468 13.8554
4/17/2022 9:45:00 AM 6.8479 15.5272
4/17/2022 10:00:00 AM 6.8491 16.6234
4/17/2022 10:15:00 AM 6.8528 16.5237
4/17/2022 10:30:00 AM 6.8524 15.5812
4/17/2022 10:45:00 AM 6.8521 16.9267
4/17/2022 11:00:00 AM 6.8527 16.7117
4/17/2022 11:15:00 AM 6.8522 16.4661
4/17/2022 11:30:00 AM 6.8525 16.3006
4/17/2022 11:45:00 AM 6.8544 15.4
4/17/2022 12:00:00 PM 6.8528 14.8259
4/17/2022 12:15:00 PM 6.8562 15.5692
4/17/2022 12:30:00 PM 6.8584 13.8517
4/17/2022 12:45:00 PM 6.858 12.4213
4/17/2022 1:00:00 PM 6.8613 19.2392
4/17/2022 1:15:00 PM 6.8629 18.1563
4/17/2022 1:30:00 PM 6.8655 17.1389
4/17/2022 1:45:00 PM 6.8685 16.2886
4/17/2022 2:00:00 PM 6.8723 15.8646
4/17/2022 2:15:00 PM 6.8724 15.4829
4/17/2022 2:30:00 PM 6.8753 14.9125
4/17/2022 2:45:00 PM 6.8764 14.7694
4/17/2022 3:00:00 PM 6.8772 14.6627
4/17/2022 3:15:00 PM 6.879 15.0468
4/17/2022 3:30:00 PM 6.8811 15.7129
4/17/2022 3:45:00 PM 6.8818 14.5503
4/17/2022 4:00:00 PM 6.8835 13.2077
4/17/2022 4:15:00 PM 6.8865 16.5209
4/17/2022 4:30:00 PM 6.888 17.3379
4/17/2022 4:45:00 PM 6.8913 16.3982
4/17/2022 5:00:00 PM 6.8921 15.2245
4/17/2022 5:15:00 PM 6.8956 14.8244
4/17/2022 5:30:00 PM 6.8959 14.4644
4/17/2022 5:45:00 PM 6.895 14.3
4/17/2022 6:00:00 PM 6.8973 15.0135
4/17/2022 6:15:00 PM 6.9011 14.7833
4/17/2022 6:30:00 PM 6.9014 13.9922
4/17/2022 6:45:00 PM 6.9015 13.9977
4/17/2022 7:00:00 PM 6.9037 13.829
4/17/2022 7:15:00 PM 6.9053 13.6654
4/17/2022 7:30:00 PM 6.9058 13.4325
4/17/2022 7:45:00 PM 6.9055 13.5454
4/17/2022 8:00:00 PM 6.9052 13.5225
4/17/2022 8:15:00 PM 6.9061 13.6527
4/17/2022 8:30:00 PM 6.9047 13.777
4/17/2022 8:45:00 PM 6.8992 13.9
4/17/2022 9:00:00 PM 6.9033 13.6511
4/17/2022 9:15:00 PM 6.901 13.8963
4/17/2022 9:30:00 PM 6.9009 13.9648
4/17/2022 9:45:00 PM 6.9012 14.0277
4/17/2022 10:00:00 PM 6.9023 14.0647
4/17/2022 10:15:00 PM 6.9021 14.2194
4/17/2022 10:30:00 PM 6.9018 14.0236
4/17/2022 10:45:00 PM 6.9009 14.1542
4/17/2022 11:00:00 PM 6.9011 14.1618
4/17/2022 11:15:00 PM 6.9005 14.1735
4/17/2022 11:30:00 PM 6.9008 14.2096
4/17/2022 11:45:00 PM 6.902 14.5
4/18/2022 12:00:00 AM 6.9012 14.2929
4/18/2022 12:15:00 AM 6.9009 14.2475
4/18/2022 12:30:00 AM 6.9002 14.1387
4/18/2022 12:45:00 AM 6.8977 14.196
4/18/2022 1:00:00 AM 6.896 14.7817
4/18/2022 1:15:00 AM 6.8962 16.2995
4/18/2022 1:30:00 AM 6.8961 17.9685
4/18/2022 1:45:00 AM 6.896 16.5399
4/18/2022 2:00:00 AM 6.8961 15.8795
4/18/2022 2:15:00 AM 6.896 15.3423
4/18/2022 2:30:00 AM 6.896 16.4039
4/18/2022 2:45:00 AM 6.8992 16.1
4/18/2022 3:00:00 AM 6.8963 13.721
4/18/2022 3:15:00 AM 6.896 14.0171
4/18/2022 3:30:00 AM 6.8961 13.7371
4/18/2022 3:45:00 AM 6.899 15.5717
4/18/2022 4:00:00 AM 6.899 13.7197
4/18/2022 4:15:00 AM 6.9004 16.5632
4/18/2022 4:30:00 AM 6.9012 15.0355
4/18/2022 4:45:00 AM 6.9009 14.7053
4/18/2022 5:00:00 AM 6.9015 18.4744
4/18/2022 5:15:00 AM 6.902 16.7979
4/18/2022 5:30:00 AM 6.904 14.8264
4/18/2022 5:45:00 AM 6.9076 14.3
4/18/2022 6:00:00 AM 6.9064 15.8781
4/18/2022 6:15:00 AM 6.9055 17.1311
4/18/2022 6:30:00 AM 6.9057 16.2182
4/18/2022 6:45:00 AM 6.9058 14.7966
4/18/2022 7:00:00 AM 6.9066 13.6372
4/18/2022 7:15:00 AM 6.906 13.1266
4/18/2022 7:30:00 AM 6.9059 13.2639
4/18/2022 7:45:00 AM 6.9074 13.4849
4/18/2022 8:00:00 AM 6.9086 12.7646
4/18/2022 8:15:00 AM 6.9098 12.8328
4/18/2022 8:30:00 AM 6.9099 12.1809
4/18/2022 8:45:00 AM 6.9076 12
4/18/2022 9:00:00 AM 6.9101 11.6176
4/18/2022 9:15:00 AM 6.9098 11.5467
4/18/2022 9:30:00 AM 6.9098 11.4402
4/18/2022 9:45:00 AM 6.9087 11.6228
4/18/2022 10:00:00 AM 6.9072 11.9758
4/18/2022 10:15:00 AM 6.9086 12.4105
4/18/2022 10:30:00 AM 6.9091 12.3076
4/18/2022 10:45:00 AM 6.9082 12.23
4/18/2022 11:00:00 AM 6.907 12.0737
4/18/2022 11:15:00 AM 6.9094 11.8948
4/18/2022 11:30:00 AM 6.9104 11.8489
4/18/2022 11:45:00 AM 6.9132 11.9
4/18/2022 12:00:00 PM 6.9124 12.0889
4/18/2022 12:15:00 PM 6.9155 12.0988
4/18/2022 12:30:00 PM 6.9164 12.3401
4/18/2022 12:45:00 PM 6.9201 12.8915
4/18/2022 1:00:00 PM 6.9218 12.4732
4/18/2022 1:15:00 PM 6.9244 12.1782
4/18/2022 1:30:00 PM 6.9277 12.1221
4/18/2022 1:45:00 PM 6.93 12.2739
4/18/2022 2:00:00 PM 6.9313 12.0028
4/18/2022 2:15:00 PM 6.9347 11.8208
4/18/2022 2:30:00 PM 6.9382 11.6658
4/18/2022 2:45:00 PM 6.941 11.5586
4/18/2022 3:00:00 PM 6.9448 11.4874
4/18/2022 3:15:00 PM 6.9472 11.8779
4/18/2022 3:30:00 PM 6.949 11.9739
4/18/2022 3:45:00 PM 6.9529 13.3625
4/18/2022 4:00:00 PM 6.9497 15.0032
4/18/2022 4:15:00 PM 6.9539 14.0483
4/18/2022 4:30:00 PM 6.9559 13.4965
4/18/2022 4:45:00 PM 6.959 13.0718
4/18/2022 5:00:00 PM 6.9627 12.8617
4/18/2022 5:15:00 PM 6.9641 13.8857
4/18/2022 5:30:00 PM 6.9679 14.4434
4/18/2022 5:45:00 PM 6.965 14.5
4/18/2022 6:00:00 PM 6.9681 13.2176
4/18/2022 6:15:00 PM 6.9686 12.8758
4/18/2022 6:30:00 PM 6.9693 12.2702
4/18/2022 6:45:00 PM 6.97 12.1302
4/18/2022 7:00:00 PM 6.9703 12.1567
4/18/2022 7:15:00 PM 6.9706 12.1683
4/18/2022 7:30:00 PM 6.972 12.0613
4/18/2022 7:45:00 PM 6.9702 12.0544
4/18/2022 8:00:00 PM 6.9697 13.1769
4/18/2022 8:15:00 PM 6.9686 15.3331
4/18/2022 8:30:00 PM 6.9678 14.0343
4/18/2022 8:45:00 PM 6.965 14.1
4/18/2022 9:00:00 PM 6.9681 13.2597
4/18/2022 9:15:00 PM 6.9682 12.911
4/18/2022 9:30:00 PM 6.9668 13.0072
4/18/2022 9:45:00 PM 6.9639 12.9189
4/18/2022 10:00:00 PM 6.9633 12.7924
4/18/2022 10:15:00 PM 6.9635 12.9982
4/18/2022 10:30:00 PM 6.9633 13.6941
4/18/2022 10:45:00 PM 6.9631 15.391
4/18/2022 11:00:00 PM 6.9623 16.1305
4/18/2022 11:15:00 PM 6.9586 18.1138
4/18/2022 11:30:00 PM 6.9584 16.7771
4/18/2022 11:45:00 PM 6.958 16.5
4/19/2022 12:00:00 AM 6.9591 14.8454
4/19/2022 12:15:00 AM 6.9613 14.484
4/19/2022 12:30:00 AM 6.9633 14.1728
4/19/2022 12:45:00 AM 6.9651 15.2868
4/19/2022 1:00:00 AM 6.967 16.2578
4/19/2022 1:15:00 AM 6.9755 15.8921
4/19/2022 1:30:00 AM 6.981 18.2106
4/19/2022 1:45:00 AM 6.9856 16.9853
4/19/2022 2:00:00 AM 6.9875 14.5072
4/19/2022 2:15:00 AM 6.9868 13.1123
4/19/2022 2:30:00 AM 6.9872 12.8628
4/19/2022 2:45:00 AM 6.9902 13
4/19/2022 3:00:00 AM 6.9876 13.983
4/19/2022 3:15:00 AM 6.9901 16.6018
4/19/2022 3:30:00 AM 6.9924 18.0215
4/19/2022 3:45:00 AM 6.9921 18.1678
4/19/2022 4:00:00 AM 6.9904 17.1266
4/19/2022 4:15:00 AM 6.9925 15.0137
4/19/2022 4:30:00 AM 6.7589 11.3339
4/19/2022 4:45:00 AM 5.9641 -1.7506
4/19/2022 5:00:00 AM 6.9483 14.4758
4/19/2022 5:15:00 AM 6.9545 16.7306
4/19/2022 5:30:00 AM 6.9664 17.2697
4/19/2022 5:45:00 AM 6.9734 16.1
4/19/2022 6:00:00 AM 6.9764 14.857
4/19/2022 6:15:00 AM 6.9775 13.1906
4/19/2022 6:30:00 AM 6.9771 12.8264
4/19/2022 6:45:00 AM 6.9786 12.6798
4/19/2022 7:00:00 AM 6.9781 12.4557
4/19/2022 7:15:00 AM 6.9777 12.4265
4/19/2022 7:30:00 AM 6.9773 12.419
4/19/2022 7:45:00 AM 6.9772 12.7244
4/19/2022 8:00:00 AM 6.9772 12.5882
4/19/2022 8:15:00 AM 6.9772 12.4516
4/19/2022 8:30:00 AM 6.9744 12.2481
4/19/2022 8:45:00 AM 6.9748 12
4/19/2022 9:00:00 AM 6.9724 11.7459
4/19/2022 9:15:00 AM 6.9637 10.9617
4/19/2022 9:30:00 AM 6.9524 10.349
4/19/2022 9:45:00 AM 6.9391 9.931
4/19/2022 10:00:00 AM 6.9136 8.7119
4/19/2022 10:15:00 AM 6.8821 8.0535
4/19/2022 10:30:00 AM 6.8565 7.3193
4/19/2022 10:45:00 AM 6.8323 8.22
4/19/2022 11:00:00 AM 6.8098 6.6463
4/19/2022 11:15:00 AM 6.7851 6.5928
4/19/2022 11:30:00 AM 6.7539 6.1131
4/19/2022 11:45:00 AM 6.7382 6.1
4/20/2022 3:00:00 AM 6.9394 15.811
4/20/2022 3:15:00 AM 6.9395 15.255
4/20/2022 3:30:00 AM 6.9396 15.0237
4/20/2022 3:45:00 AM 6.9396 15.126
4/20/2022 4:00:00 AM 6.9394 14.9113
4/20/2022 4:15:00 AM 6.9391 14.372
4/20/2022 4:30:00 AM 6.9394 13.957
4/20/2022 4:45:00 AM 6.9368 13.8141
4/20/2022 5:00:00 AM 6.9392 13.5076
4/20/2022 5:15:00 AM 6.9396 13.2487
4/20/2022 5:30:00 AM 6.9392 13.0051
4/20/2022 5:45:00 AM 6.9384 12.791
4/20/2022 6:00:00 AM 6.9367 12.4553
4/20/2022 6:15:00 AM 6.9351 12.3141
4/20/2022 6:30:00 AM 6.9345 12.3465
4/20/2022 6:45:00 AM 6.9352 12.3887
4/20/2022 7:00:00 AM 6.935 12.2042
4/20/2022 7:15:00 AM 6.9347 11.9876
4/20/2022 7:30:00 AM 6.9345 11.8022
4/20/2022 7:45:00 AM 6.9343 11.72
4/20/2022 8:00:00 AM 6.9349 11.6042
4/20/2022 8:15:00 AM 6.9348 11.5944
4/20/2022 8:30:00 AM 6.9346 11.9256
4/20/2022 8:45:00 AM 6.934 13.4132
4/20/2022 9:00:00 AM 6.9326 13.8876
4/20/2022 9:15:00 AM 6.9338 13.3451
4/20/2022 9:30:00 AM 6.9336 14.096
4/20/2022 9:45:00 AM 6.9315 16.594
4/20/2022 10:00:00 AM 6.9304 18.6968
4/20/2022 10:15:00 AM 6.9305 16.6096
4/20/2022 10:30:00 AM 6.9304 14.9799
4/20/2022 10:45:00 AM 6.9317 13.4164
4/20/2022 11:00:00 AM 6.9313 12.9114
4/20/2022 11:15:00 AM 6.931 13.859
4/20/2022 11:30:00 AM 6.9335 14.2023
4/20/2022 11:45:00 AM 6.9316 13.8585
4/20/2022 12:00:00 PM 6.9308 13.6457
4/20/2022 12:15:00 PM 6.9314 13.7446
4/20/2022 12:30:00 PM 6.9303 13.6312
4/20/2022 12:45:00 PM 6.9284 13.8109
4/20/2022 1:00:00 PM 6.9255 14.3285
4/20/2022 1:15:00 PM 6.9254 14.7965
4/20/2022 1:30:00 PM 6.9251 15.1088
4/20/2022 1:45:00 PM 6.9254 15.4225
4/20/2022 2:00:00 PM 6.9249 16.3996
4/20/2022 2:15:00 PM 6.9254 17.8058
4/20/2022 2:30:00 PM 6.925 15.8859
4/20/2022 2:45:00 PM 6.9249 13.2839
4/20/2022 3:00:00 PM 6.9253 18.6951
4/20/2022 3:15:00 PM 6.9265 28.2525
4/20/2022 3:30:00 PM 6.9281 37.353
4/20/2022 3:45:00 PM 6.9278 49.8408
4/20/2022 4:00:00 PM 6.9293 67.3161
4/20/2022 4:15:00 PM 6.9297 87.475
4/20/2022 4:30:00 PM 6.9254 101.2335
4/20/2022 4:45:00 PM 6.9248 113.2662
4/20/2022 5:00:00 PM 6.9217 119.5268
4/20/2022 5:15:00 PM 6.9196 124.247
4/20/2022 5:30:00 PM 6.92 132.6953
4/20/2022 5:45:00 PM 6.9187 134.5345
4/20/2022 6:00:00 PM 6.9156 129.3216
4/20/2022 6:15:00 PM 6.9138 122.5779
4/20/2022 6:30:00 PM 6.913 116.8916
4/20/2022 6:45:00 PM 6.91 104.2222
4/20/2022 7:00:00 PM 6.9067 93.1424
4/20/2022 7:15:00 PM 6.9065 82.4384
4/20/2022 7:30:00 PM 6.906 72.8088
4/20/2022 7:45:00 PM 6.9022 66.8268
4/20/2022 8:00:00 PM 6.9029 60.8611
4/20/2022 8:15:00 PM 6.9015 54.6224
4/20/2022 8:30:00 PM 6.8999 47.8684
4/20/2022 8:45:00 PM 6.8968 42.6111
4/20/2022 9:00:00 PM 6.8964 37.8441
4/20/2022 9:15:00 PM 6.8955 34.9451
4/20/2022 9:30:00 PM 6.8931 32.6394
4/20/2022 9:45:00 PM 6.8917 30.4588
4/20/2022 10:00:00 PM 6.8912 28.6503
4/20/2022 10:15:00 PM 6.8879 27.139
4/20/2022 10:30:00 PM 6.8871 26.1146
4/20/2022 10:45:00 PM 6.8871 25.2692
4/20/2022 11:00:00 PM 6.8855 24.5818
4/20/2022 11:15:00 PM 6.8823 24.0128
4/20/2022 11:30:00 PM 6.8822 23.4179
4/20/2022 11:45:00 PM 6.8795 22.9842
4/21/2022 12:00:00 AM 6.8776 22.1646
4/21/2022 12:15:00 AM 6.8776 21.6132
4/21/2022 12:30:00 AM 6.8773 20.7815
4/21/2022 12:45:00 AM 6.8761 20.0813
4/21/2022 1:00:00 AM 6.8739 19.125
4/21/2022 1:15:00 AM 6.8738 18.3293
4/21/2022 1:30:00 AM 6.8748 17.6546
4/21/2022 1:45:00 AM 6.8728 17.1603
4/21/2022 2:00:00 AM 6.8729 16.3018
4/21/2022 2:15:00 AM 6.8724 15.7121
4/21/2022 2:30:00 AM 6.8683 15.1025
4/21/2022 2:45:00 AM 6.8698 14.7002
4/21/2022 3:00:00 AM 6.8724 13.7048
4/21/2022 3:15:00 AM 6.8713 13.0636
4/21/2022 3:30:00 AM 6.8724 12.2544
4/21/2022 3:45:00 AM 6.8714 11.9814
4/21/2022 4:00:00 AM 6.8696 11.2755
4/21/2022 4:15:00 AM 6.8695 10.8272
4/21/2022 4:30:00 AM 6.8705 14.5406
4/21/2022 4:45:00 AM 6.8706 19.0656
4/21/2022 5:00:00 AM 6.8715 18.9833
4/21/2022 5:15:00 AM 6.8682 18.5158
4/21/2022 5:30:00 AM 6.868 18.1737
4/21/2022 5:45:00 AM 6.8656 18.1
4/21/2022 6:00:00 AM 6.8682 17.3179
4/21/2022 6:15:00 AM 6.8679 17.0366
4/21/2022 6:30:00 AM 6.8685 17.0022
4/21/2022 6:45:00 AM 6.8675 16.7469
4/21/2022 7:00:00 AM 6.8682 18.4707
4/21/2022 7:15:00 AM 6.8682 16.5532
4/21/2022 7:30:00 AM 6.8683 15.9228
4/21/2022 7:45:00 AM 6.8676 15.6571
4/21/2022 8:00:00 AM 6.8679 15.4497
4/21/2022 8:15:00 AM 6.8666 15.4064
4/21/2022 8:30:00 AM 6.8657 15.316
4/21/2022 8:45:00 AM 6.8656 15.4
4/21/2022 9:00:00 AM 6.8649 15.3417
4/21/2022 9:15:00 AM 6.8647 15.3098
4/21/2022 9:30:00 AM 6.8633 15.3795
4/21/2022 9:45:00 AM 6.8633 15.4694
4/21/2022 10:00:00 AM 6.8633 15.281
4/21/2022 10:15:00 AM 6.8634 15.1657
4/21/2022 10:30:00 AM 6.863 15.0741
4/21/2022 10:45:00 AM 6.8637 15.0914
4/21/2022 11:00:00 AM 6.8634 15.049
4/21/2022 11:15:00 AM 6.8654 15.2081
4/21/2022 11:30:00 AM 6.8662 15.2201
4/21/2022 11:45:00 AM 6.8628 15.3
4/21/2022 12:00:00 PM 6.8664 15.2719
4/21/2022 12:15:00 PM 6.8666 15.3219
4/21/2022 12:30:00 PM 6.8659 15.3957
4/21/2022 12:45:00 PM 6.868 15.5942
4/21/2022 1:00:00 PM 6.868 15.9464
4/21/2022 1:15:00 PM 6.868 16.4518
4/21/2022 1:30:00 PM 6.868 16.9838
4/21/2022 1:45:00 PM 6.8683 17.9958
4/21/2022 2:00:00 PM 6.8681 17.0067
4/21/2022 2:15:00 PM 6.8682 12.0289
4/21/2022 2:30:00 PM 6.8679 14.3047
4/21/2022 2:45:00 PM 6.8677 16.7313
4/21/2022 3:00:00 PM 6.8643 19.348
4/21/2022 3:15:00 PM 6.8635 21.7118
4/21/2022 3:30:00 PM 6.8628 24.2721
4/21/2022 3:45:00 PM 6.8581 26.0782
4/21/2022 4:00:00 PM 6.8534 34.8779
4/21/2022 4:15:00 PM 6.8533 29.7109
4/21/2022 4:30:00 PM 6.8527 28.3856
4/21/2022 4:45:00 PM 6.8482 28.0746
4/21/2022 5:00:00 PM 6.8483 27.7596
4/21/2022 5:15:00 PM 6.8474 29.2216
4/21/2022 5:30:00 PM 6.8435 30.3513
4/21/2022 5:45:00 PM 6.846 30.8999
4/21/2022 6:00:00 PM 6.838 31.2376
4/21/2022 6:15:00 PM 6.8347 28.6762
4/21/2022 6:30:00 PM 6.8357 35.326
4/21/2022 6:45:00 PM 6.8326 31.2705
4/21/2022 7:00:00 PM 6.8293 29.2066
4/21/2022 7:15:00 PM 6.8271 27.5771
4/21/2022 7:30:00 PM 6.8234 26.3399
4/21/2022 7:45:00 PM 6.8236 24.1773
4/21/2022 8:00:00 PM 6.8235 22.7114
4/21/2022 8:15:00 PM 6.8221 21.8819
4/21/2022 8:30:00 PM 6.819 20.4649
4/21/2022 8:45:00 PM 6.818 20
4/21/2022 9:00:00 PM 6.818 18.7005
4/21/2022 9:15:00 PM 6.8148 18.5089
4/21/2022 9:30:00 PM 6.814 17.5055
4/21/2022 9:45:00 PM 6.8142 17.0658
4/21/2022 10:00:00 PM 6.814 16.6592
4/21/2022 10:15:00 PM 6.8103 16.3984
4/21/2022 10:30:00 PM 6.8084 15.7383
4/21/2022 10:45:00 PM 6.8092 15.4729
4/21/2022 11:00:00 PM 6.809 15.3789
4/21/2022 11:15:00 PM 6.8088 15.9747
4/21/2022 11:30:00 PM 6.8053 15.6483
4/21/2022 11:45:00 PM 6.8054 16.1
4/22/2022 12:00:00 AM 6.8042 15.0855
4/22/2022 12:15:00 AM 6.8031 14.9611
4/22/2022 12:30:00 AM 6.8003 14.2011
4/22/2022 12:45:00 AM 6.7993 14.3835
4/22/2022 1:00:00 AM 6.7995 14.041
4/22/2022 1:15:00 AM 6.7989 14.5188
4/22/2022 1:30:00 AM 6.7958 13.9763
4/22/2022 1:45:00 AM 6.795 14.2891
4/22/2022 2:00:00 AM 6.7942 13.5121
4/22/2022 2:15:00 AM 6.7945 12.944
4/22/2022 2:30:00 AM 6.7947 12.3584
4/22/2022 2:45:00 AM 6.7914 12.4
4/22/2022 3:00:00 AM 6.7935 12.0641
4/22/2022 3:15:00 AM 6.792 11.9976
4/22/2022 3:30:00 AM 6.7911 11.5194
4/22/2022 3:45:00 AM 6.7912 11.2915
4/22/2022 4:00:00 AM 6.7904 10.944
4/22/2022 4:15:00 AM 6.7898 11.0694
4/22/2022 4:30:00 AM 6.7898 10.9376
4/22/2022 4:45:00 AM 6.79 13.7298
4/22/2022 5:00:00 AM 6.7895 19.1787
4/22/2022 5:15:00 AM 6.7893 18.7824
4/22/2022 5:30:00 AM 6.7899 19.1467
4/22/2022 5:45:00 AM 6.79 19.2
4/22/2022 6:00:00 AM 6.79 19.1204
4/22/2022 6:15:00 AM 6.7897 18.7937
4/22/2022 6:30:00 AM 6.7896 18.7273
4/22/2022 6:45:00 AM 6.7898 17.386
4/22/2022 7:00:00 AM 6.7897 18.4566
4/22/2022 7:15:00 AM 6.7912 17.8336
4/22/2022 7:30:00 AM 6.7925 18.25
4/22/2022 7:45:00 AM 6.7914 18.0985
4/22/2022 8:00:00 AM 6.7916 22.4677
4/22/2022 8:15:00 AM 6.7925 17.8937
4/22/2022 8:30:00 AM 6.7935 17.9263
4/22/2022 8:45:00 AM 6.7956 18
4/22/2022 9:00:00 AM 6.7704 12.7
4/22/2022 9:15:00 AM 6.7704 12.7
4/22/2022 9:30:00 AM 6.7704 12.7
4/22/2022 9:45:00 AM 6.7704 12.7
4/22/2022 10:00:00 AM 6.7704 12.7
4/22/2022 10:15:00 AM 6.7704 12.7
4/22/2022 10:30:00 AM 6.7704 12.7
4/22/2022 10:45:00 AM 6.7704 12.7
4/22/2022 11:00:00 AM 6.7704 12.7
4/22/2022 11:15:00 AM 6.7704 12.7
4/22/2022 11:30:00 AM 6.7704 12.7
4/22/2022 11:45:00 AM 6.7704 12.7
4/22/2022 12:00:00 PM 0 0
4/22/2022 12:15:00 PM 0 0
4/22/2022 12:30:00 PM 6.7848 19.1464
4/22/2022 12:45:00 PM 6.784 26.4768
4/22/2022 1:00:00 PM 6.7785 25.4714
4/22/2022 1:15:00 PM 6.7795 13.0211
4/22/2022 1:30:00 PM 6.7759 12.6134
4/22/2022 1:45:00 PM 6.7774 12.5782
4/22/2022 2:00:00 PM 6.7798 11.9968
4/22/2022 2:15:00 PM 6.7803 12.4464
4/22/2022 2:30:00 PM 6.7797 12.1934
4/22/2022 2:45:00 PM 6.7798 12.2264
4/22/2022 3:00:00 PM 6.7795 14.1821
4/22/2022 3:15:00 PM 6.7793 13.7569
4/22/2022 3:30:00 PM 6.7797 15.1216
4/22/2022 3:45:00 PM 6.7901 12.4844
4/22/2022 4:00:00 PM 6.7795 11.8908
4/22/2022 4:15:00 PM 6.7797 11.699
4/22/2022 4:30:00 PM 6.7797 13.6162
4/22/2022 4:45:00 PM 6.7798 13.9064
4/22/2022 5:00:00 PM 6.7796 15.0746
4/22/2022 5:15:00 PM 6.7799 14.6646
4/22/2022 5:30:00 PM 6.7795 16.8566
4/22/2022 5:45:00 PM 6.7816 18.8
4/22/2022 6:00:00 PM 6.7819 18.8582
4/22/2022 6:15:00 PM 6.7834 17.8391
4/22/2022 6:30:00 PM 6.7834 19.0427
4/22/2022 6:45:00 PM 6.7854 17.6478
4/22/2022 7:00:00 PM 6.7847 18.1481
4/22/2022 7:15:00 PM 6.7844 13.4797
4/22/2022 7:30:00 PM 6.7846 11.5714
4/22/2022 7:45:00 PM 6.7843 16.3697
4/22/2022 8:00:00 PM 6.7812 19.7297
4/22/2022 8:15:00 PM 6.7833 14.0157
4/22/2022 8:30:00 PM 6.7801 11.7865
4/22/2022 8:45:00 PM 6.7774 13.9996
4/22/2022 9:00:00 PM 6.78 17.7615
4/22/2022 9:15:00 PM 6.7777 14.1286
4/22/2022 9:30:00 PM 6.7757 11.6123
4/22/2022 9:45:00 PM 6.7749 11.5576
4/22/2022 10:00:00 PM 6.775 18.9907
4/22/2022 10:15:00 PM 6.775 18.3224
4/22/2022 10:30:00 PM 6.7702 19.3174
4/22/2022 10:45:00 PM 6.7698 14.5351
4/22/2022 11:00:00 PM 6.7691 42.4049
4/22/2022 11:15:00 PM 6.7654 14.6041
4/22/2022 11:30:00 PM 6.7612 12.2529
4/22/2022 11:45:00 PM 6.762 12
4/23/2022 12:00:00 AM 6.7558 11.6025
4/23/2022 12:15:00 AM 6.7577 11.527
4/23/2022 12:30:00 AM 6.7555 11.6878
4/23/2022 12:45:00 AM 6.7559 11.9263
4/23/2022 1:00:00 AM 6.7556 11.7511
4/23/2022 1:15:00 AM 6.756 11.5941
4/23/2022 1:30:00 AM 6.7559 11.4922
4/23/2022 1:45:00 AM 6.7558 11.6395
4/23/2022 2:00:00 AM 6.7553 12.1867
4/23/2022 2:15:00 AM 6.7559 12.4751
4/23/2022 2:30:00 AM 6.753 16.3492
4/23/2022 2:45:00 AM 6.7522 20.2002
4/23/2022 3:00:00 AM 6.7513 15.9673
4/23/2022 3:15:00 AM 6.7511 13.8632
4/23/2022 3:30:00 AM 6.7505 11.7833
4/23/2022 3:45:00 AM 6.7484 48.5084
4/23/2022 4:00:00 AM 6.7456 12.3519
4/23/2022 4:15:00 AM 6.7412 12.3739
4/23/2022 4:30:00 AM 6.7404 12.1267
4/23/2022 4:45:00 AM 6.7378 11.9917
4/23/2022 5:00:00 AM 6.737 11.3895
4/23/2022 5:15:00 AM 6.7364 11.1655
4/23/2022 5:30:00 AM 6.7363 11.1558
4/23/2022 5:45:00 AM 6.734 11.2
4/23/2022 6:00:00 AM 6.7363 10.902
4/23/2022 6:15:00 AM 6.7357 10.8864
4/23/2022 6:30:00 AM 6.7341 10.8396
4/23/2022 6:45:00 AM 6.7331 10.8251
4/23/2022 7:00:00 AM 6.7324 10.7736
4/23/2022 7:15:00 AM 6.7322 11.0097
4/23/2022 7:30:00 AM 6.7329 10.9059
4/23/2022 7:45:00 AM 6.7354 10.7499
4/23/2022 8:00:00 AM 6.7362 10.426
4/23/2022 8:15:00 AM 6.7363 10.4007
4/23/2022 8:30:00 AM 6.7368 10.2653
4/23/2022 8:45:00 AM 6.7368 10.3
4/23/2022 9:00:00 AM 6.7416 15.4785
4/23/2022 9:15:00 AM 6.7417 13.9862
4/23/2022 9:30:00 AM 6.7428 11.1282
4/23/2022 9:45:00 AM 6.7461 14.3937
4/23/2022 10:00:00 AM 6.7461 18.9207
4/23/2022 10:15:00 AM 6.7464 19.0946
4/23/2022 10:30:00 AM 6.7471 18.2508
4/23/2022 10:45:00 AM 6.7485 13.1636
4/23/2022 11:00:00 AM 6.751 18.0225
4/23/2022 11:15:00 AM 6.7508 18.9419
4/23/2022 11:30:00 AM 6.7513 18.4852
4/23/2022 11:45:00 AM 6.748 19.5998
4/23/2022 12:00:00 PM 6.7467 15.1114
4/23/2022 12:15:00 PM 6.7492 19.0439
4/23/2022 12:30:00 PM 6.7502 19.4268
4/23/2022 12:45:00 PM 6.7508 19.2687
4/23/2022 1:00:00 PM 6.7495 19.2283
4/23/2022 1:15:00 PM 6.7484 18.9823
4/23/2022 1:30:00 PM 6.7463 19.2686
4/23/2022 1:45:00 PM 6.7464 19.2501
4/23/2022 2:00:00 PM 6.7466 19.2546
4/23/2022 2:15:00 PM 6.7461 19.0425
4/23/2022 2:30:00 PM 6.7467 19.0983
4/23/2022 2:45:00 PM 6.7507 18.9872
4/23/2022 3:00:00 PM 6.7504 19.1808
4/23/2022 3:15:00 PM 6.7509 19.0118
4/23/2022 3:30:00 PM 6.7513 19.0018
4/23/2022 3:45:00 PM 6.7511 19.1192
4/23/2022 4:00:00 PM 6.751 19.2195
4/23/2022 4:15:00 PM 6.7514 19.143
4/23/2022 4:30:00 PM 6.7506 18.9645
4/23/2022 4:45:00 PM 6.7513 17.5559
4/23/2022 5:00:00 PM 6.7509 13.5413
4/23/2022 5:15:00 PM 6.7502 13.2453
4/23/2022 5:30:00 PM 6.7486 11.0057
4/23/2022 5:45:00 PM 6.748 10.8
4/23/2022 6:00:00 PM 6.7465 14.0313
4/23/2022 6:15:00 PM 6.7458 14.1854
4/23/2022 6:30:00 PM 6.7462 14.7254
4/23/2022 6:45:00 PM 6.7439 12.0903
4/23/2022 7:00:00 PM 6.7421 16.1188
4/23/2022 7:15:00 PM 6.7413 18.514
4/23/2022 7:30:00 PM 6.7414 18.1739
4/23/2022 7:45:00 PM 6.7413 12.2474
4/23/2022 8:00:00 PM 6.7405 10.9767
4/23/2022 8:15:00 PM 6.7388 10.6025
4/23/2022 8:30:00 PM 6.7366 10.6992
4/23/2022 8:45:00 PM 6.7354 10.8
4/23/2022 9:00:00 PM 6.7367 10.6306
4/23/2022 9:15:00 PM 6.7369 10.5901
4/23/2022 9:30:00 PM 6.7358 10.6767
4/23/2022 9:45:00 PM 6.7346 10.7891
4/23/2022 10:00:00 PM 6.7334 10.801
4/23/2022 10:15:00 PM 6.7323 10.9165
4/23/2022 10:30:00 PM 6.7317 10.782
4/23/2022 10:45:00 PM 6.7319 10.7285
4/23/2022 11:00:00 PM 6.7324 10.9314
4/23/2022 11:15:00 PM 6.7321 10.7177
4/23/2022 11:30:00 PM 6.7319 10.6137
4/23/2022 11:45:00 PM 6.7326 10.6
4/24/2022 12:00:00 AM 6.7318 12.1339
4/24/2022 12:15:00 AM 6.7314 11.4143
4/24/2022 12:30:00 AM 6.7303 11.198
4/24/2022 12:45:00 AM 6.7284 11.0721
4/24/2022 1:00:00 AM 6.7271 10.9388
4/24/2022 1:15:00 AM 6.7274 10.8103
4/24/2022 1:30:00 AM 6.7273 10.682
4/24/2022 1:45:00 AM 6.727 10.7965
4/24/2022 2:00:00 AM 6.7267 10.8477
4/24/2022 2:15:00 AM 6.7226 10.754
4/24/2022 2:30:00 AM 6.7224 11.3996
4/24/2022 2:45:00 AM 6.7242 11.6999
4/24/2022 3:00:00 AM 6.7226 11.4883
4/24/2022 3:15:00 AM 6.7225 10.7993
4/24/2022 3:30:00 AM 6.7221 10.6568
4/24/2022 3:45:00 AM 6.721 10.8285
4/24/2022 4:00:00 AM 6.721 11.5215
4/24/2022 4:15:00 AM 6.7179 11.4231
4/24/2022 4:30:00 AM 6.7183 11.3522
4/24/2022 4:45:00 AM 6.7177 11.2681
4/24/2022 5:00:00 AM 6.7179 10.8697
4/24/2022 5:15:00 AM 6.7179 10.8845
4/24/2022 5:30:00 AM 6.718 14.8713
4/24/2022 5:45:00 AM 6.7158 17.3002
4/24/2022 6:00:00 AM 6.7175 19.3176
4/24/2022 6:15:00 AM 6.7178 19.2926
4/24/2022 6:30:00 AM 6.7178 16.1046
4/24/2022 6:45:00 AM 6.718 11.0212
4/24/2022 7:00:00 AM 6.7178 11.3184
4/24/2022 7:15:00 AM 6.7192 18.3458
4/24/2022 7:30:00 AM 6.721 19.4268
4/24/2022 7:45:00 AM 6.722 18.0283
4/24/2022 8:00:00 AM 6.7224 17.8228
4/24/2022 8:15:00 AM 6.722 17.5038
4/24/2022 8:30:00 AM 6.7228 19.4293
4/24/2022 8:45:00 AM 6.72 19.6
4/24/2022 9:00:00 AM 6.7228 18.8332
4/24/2022 9:15:00 AM 6.7242 12.5492
4/24/2022 9:30:00 AM 6.727 12.4006
4/24/2022 9:45:00 AM 6.7275 19.2713
4/24/2022 10:00:00 AM 6.7281 19.4232
4/24/2022 10:15:00 AM 6.7292 19.2079
4/24/2022 10:30:00 AM 6.73 19.39
4/24/2022 10:45:00 AM 6.7317 19.2507
4/24/2022 11:00:00 AM 6.7321 19.3256
4/24/2022 11:15:00 AM 6.7311 19.1284
4/24/2022 11:30:00 AM 6.7281 19.0247
4/24/2022 11:45:00 AM 6.7256 19
4/24/2022 12:00:00 PM 6.7303 19.0256
4/24/2022 12:15:00 PM 6.732 18.8692
4/24/2022 12:30:00 PM 6.7314 17.8431
4/24/2022 12:45:00 PM 6.7294 17.3041
4/24/2022 1:00:00 PM 6.7322 16.5767
4/24/2022 1:15:00 PM 6.7319 15.9629
4/24/2022 1:30:00 PM 6.732 15.6307
4/24/2022 1:45:00 PM 6.731 15.155
4/24/2022 2:00:00 PM 6.7276 14.7284
4/24/2022 2:15:00 PM 6.7237 20.2133
4/24/2022 2:30:00 PM 6.7222 16.7043
4/24/2022 2:45:00 PM 6.7228 16.4827
4/24/2022 3:00:00 PM 6.7156 18.9049
4/24/2022 3:15:00 PM 6.7185 18.8422
4/24/2022 3:30:00 PM 6.7225 19.1829
4/24/2022 3:45:00 PM 6.7256 19.118
4/24/2022 4:00:00 PM 6.7302 18.3839
4/24/2022 4:15:00 PM 6.7314 18.2716
4/24/2022 4:30:00 PM 6.7321 18.3721
4/24/2022 4:45:00 PM 6.732 18.2699
4/24/2022 5:00:00 PM 6.7318 18.1064
4/24/2022 5:15:00 PM 6.7339 18.1282
4/24/2022 5:30:00 PM 6.7353 18.3272
4/24/2022 5:45:00 PM 6.734 18.4
4/24/2022 6:00:00 PM 6.7364 18.1083
4/24/2022 6:15:00 PM 6.7373 18.1837
4/24/2022 6:30:00 PM 6.7399 18.168
4/24/2022 6:45:00 PM 6.7412 18.2209
4/24/2022 7:00:00 PM 6.7404 18.223
4/24/2022 7:15:00 PM 6.7414 18.157
4/24/2022 7:30:00 PM 6.7415 18.2755
4/24/2022 7:45:00 PM 6.741 15.2826
4/24/2022 8:00:00 PM 6.7405 16.7199
4/24/2022 8:15:00 PM 6.7419 18.7373
4/24/2022 8:30:00 PM 6.7412 18.7384
4/24/2022 8:45:00 PM 6.7438 18.7999
4/24/2022 9:00:00 PM 6.7409 19.2462
4/24/2022 9:15:00 PM 6.7416 14.8197
4/24/2022 9:30:00 PM 6.7403 18.5612
4/24/2022 9:45:00 PM 6.7382 11.0047
4/24/2022 10:00:00 PM 6.7368 18.8416
4/24/2022 10:15:00 PM 6.7369 19.0275
4/24/2022 10:30:00 PM 6.7371 19.03
4/24/2022 10:45:00 PM 6.7367 18.1996
4/24/2022 11:00:00 PM 6.7365 19.1784
4/24/2022 11:15:00 PM 6.7367 19.1255
4/24/2022 11:30:00 PM 6.7366 19.1247
4/24/2022 11:45:00 PM 6.7382 19.1
4/25/2022 12:00:00 AM 6.7366 18.9923
4/25/2022 12:15:00 AM 6.7366 18.8591
4/25/2022 12:30:00 AM 6.7364 19.1085
4/25/2022 12:45:00 AM 6.7365 18.8776
4/25/2022 1:00:00 AM 6.7365 19.2385
4/25/2022 1:15:00 AM 6.7369 18.7472
4/25/2022 1:30:00 AM 6.7366 18.8942
4/25/2022 1:45:00 AM 6.7369 18.9036
4/25/2022 2:00:00 AM 6.7366 18.8835
4/25/2022 2:15:00 AM 6.7364 18.678
4/25/2022 2:30:00 AM 6.7363 12.4563
4/25/2022 2:45:00 AM 6.7368 11.4
4/25/2022 3:00:00 AM 6.7359 18.7475
4/25/2022 3:15:00 AM 6.7367 18.4481
4/25/2022 3:30:00 AM 6.7367 18.4977
4/25/2022 3:45:00 AM 6.7365 18.5667
4/25/2022 4:00:00 AM 6.7366 18.5417
4/25/2022 4:15:00 AM 6.7367 18.6566
4/25/2022 4:30:00 AM 6.7365 18.7428
4/25/2022 4:45:00 AM 6.7361 18.7782
4/25/2022 5:00:00 AM 6.7365 18.8635
4/25/2022 5:15:00 AM 6.7361 18.6952
4/25/2022 5:30:00 AM 6.7364 18.8953
4/25/2022 5:45:00 AM 6.7382 18.9999
4/25/2022 6:00:00 AM 6.7368 18.5654
4/25/2022 6:15:00 AM 6.7367 18.6424
4/25/2022 6:30:00 AM 6.7368 18.6772
4/25/2022 6:45:00 AM 6.7368 18.7465
4/25/2022 7:00:00 AM 6.7364 18.6418
4/25/2022 7:15:00 AM 6.7343 18.3305
4/25/2022 7:30:00 AM 6.7334 18.4034
4/25/2022 7:45:00 AM 6.7341 18.2514
4/25/2022 8:00:00 AM 6.7328 18.0035
4/25/2022 8:15:00 AM 6.7335 17.7704
4/25/2022 8:30:00 AM 6.7337 17.7239
4/25/2022 8:45:00 AM 6.7326 17.8
4/25/2022 9:00:00 AM 6.7362 17.4187
4/25/2022 9:15:00 AM 6.7357 17.2518
4/25/2022 9:30:00 AM 6.7363 17.1202
4/25/2022 9:45:00 AM 6.7363 17.1235
4/25/2022 10:00:00 AM 6.7367 16.9977
4/25/2022 10:15:00 AM 6.7369 18.3932
4/25/2022 10:30:00 AM 6.7368 17.3719
4/25/2022 10:45:00 AM 6.7368 16.5088
4/25/2022 11:00:00 AM 6.7369 16.5442
4/25/2022 11:15:00 AM 6.7366 16.6853
4/25/2022 11:30:00 AM 6.7356 16.6738
4/25/2022 11:45:00 AM 6.7312 16.6
4/25/2022 12:00:00 PM 6.7363 15.9991
4/25/2022 12:15:00 PM 6.7369 16.1257
4/25/2022 12:30:00 PM 6.7375 16.2358
4/25/2022 12:45:00 PM 6.7388 16.107
4/25/2022 1:00:00 PM 6.7372 16.0946
4/25/2022 1:15:00 PM 6.7384 16.0977
4/25/2022 1:30:00 PM 6.7403 16.2044
4/25/2022 1:45:00 PM 6.7413 16.1064
4/25/2022 2:00:00 PM 6.7414 16.212
4/25/2022 2:15:00 PM 6.7414 16.3719
4/25/2022 2:30:00 PM 6.7439 16.2316
4/25/2022 2:45:00 PM 6.7456 16.917
4/25/2022 3:00:00 PM 6.746 16.7168
4/25/2022 3:15:00 PM 6.7462 16.0943
4/25/2022 3:30:00 PM 6.7472 16.2534
4/25/2022 3:45:00 PM 6.749 16.2402
4/25/2022 4:00:00 PM 6.7516 15.8354
4/25/2022 4:15:00 PM 6.7535 15.8869
4/25/2022 4:30:00 PM 6.7559 15.8169
4/25/2022 4:45:00 PM 6.7549 15.7602
4/25/2022 5:00:00 PM 6.7559 15.7818
4/25/2022 5:15:00 PM 6.7566 15.4498
4/25/2022 5:30:00 PM 6.7599 15.3375
4/25/2022 5:45:00 PM 6.7606 15.5
4/25/2022 6:00:00 PM 6.7609 16.0743
4/25/2022 6:15:00 PM 6.7605 16.5706
4/25/2022 6:30:00 PM 6.7608 17.0054
4/25/2022 6:45:00 PM 6.7614 17.6463
4/25/2022 7:00:00 PM 6.7647 15.674
4/25/2022 7:15:00 PM 6.7659 15.6123
4/25/2022 7:30:00 PM 6.7658 15.4282
4/25/2022 7:45:00 PM 6.7658 15.2019
4/25/2022 8:00:00 PM 6.7656 14.7981
4/25/2022 8:15:00 PM 6.7657 14.4591
4/25/2022 8:30:00 PM 6.7653 14.2809
4/25/2022 8:45:00 PM 6.7648 14.6999
4/25/2022 9:00:00 PM 6.7636 14.3863
4/25/2022 9:15:00 PM 6.7628 14.1539
4/25/2022 9:30:00 PM 6.7614 14.0164
4/25/2022 9:45:00 PM 6.7616 14.0739
4/25/2022 10:00:00 PM 6.7613 14.0895
4/25/2022 10:15:00 PM 6.762 14.1625
4/25/2022 10:30:00 PM 6.7604 14.1184
4/25/2022 10:45:00 PM 6.7606 14.4204
4/25/2022 11:00:00 PM 6.7601 14.3709
4/25/2022 11:15:00 PM 6.7603 14.6173
4/25/2022 11:30:00 PM 6.7602 14.6838
4/25/2022 11:45:00 PM 6.762 14.9
4/26/2022 12:00:00 AM 6.7605 14.5852
4/26/2022 12:15:00 AM 6.7599 14.4951
4/26/2022 12:30:00 AM 6.7589 14.5059
4/26/2022 12:45:00 AM 6.7575 14.9138
4/26/2022 1:00:00 AM 6.7574 15.1231
4/26/2022 1:15:00 AM 6.7571 15.2435
4/26/2022 1:30:00 AM 6.7576 15.0156
4/26/2022 1:45:00 AM 6.7576 15.1817
4/26/2022 2:00:00 AM 6.756 14.9514
4/26/2022 2:15:00 AM 6.7561 14.9898
4/26/2022 2:30:00 AM 6.7554 15.0132
4/26/2022 2:45:00 AM 6.7564 15.0999
4/26/2022 3:00:00 AM 6.7553 15.6272
4/26/2022 3:15:00 AM 6.7555 15.7835
4/26/2022 3:30:00 AM 6.7557 15.8008
4/26/2022 3:45:00 AM 6.7556 15.9682
4/26/2022 4:00:00 AM 6.7555 16.194
4/26/2022 4:15:00 AM 6.7555 15.7891
4/26/2022 4:30:00 AM 6.7558 15.3005
4/26/2022 4:45:00 AM 6.7548 15.5069
4/26/2022 5:00:00 AM 6.7542 17.0118
4/26/2022 5:15:00 AM 6.7519 16.5482
4/26/2022 5:30:00 AM 6.7519 15.8947
4/26/2022 5:45:00 AM 6.7522 16.1
4/26/2022 6:00:00 AM 6.7512 15.6523
4/26/2022 6:15:00 AM 6.7509 15.3174
4/26/2022 6:30:00 AM 6.7509 15.2293
4/26/2022 6:45:00 AM 6.7506 15.112
4/26/2022 7:00:00 AM 6.7505 14.9938
4/26/2022 7:15:00 AM 6.7489 14.3315
4/26/2022 7:30:00 AM 6.7482 13.9283
4/26/2022 7:45:00 AM 6.7468 13.8144
4/26/2022 8:00:00 AM 6.7471 13.6086
4/26/2022 8:15:00 AM 6.7461 13.5945
4/26/2022 8:30:00 AM 6.746 13.4632
4/26/2022 8:45:00 AM 6.748 13.5
4/26/2022 9:00:00 AM 6.7464 13.4763
4/26/2022 9:15:00 AM 6.7462 13.3857
4/26/2022 9:30:00 AM 6.7462 13.2587
4/26/2022 9:45:00 AM 6.7462 13.2189
4/26/2022 10:00:00 AM 6.7475 13.0986
4/26/2022 10:15:00 AM 6.7494 13.0604
4/26/2022 10:30:00 AM 6.7508 12.965
4/26/2022 10:45:00 AM 6.7509 13.0115
4/26/2022 11:00:00 AM 6.7507 12.8705
4/26/2022 11:15:00 AM 6.751 12.8477
4/26/2022 11:30:00 AM 6.7514 12.8232
4/26/2022 11:45:00 AM 6.748 12.7
4/26/2022 12:00:00 PM 6.7561 12.84
4/26/2022 12:15:00 PM 6.756 12.8425
4/26/2022 12:30:00 PM 6.7562 12.8504
4/26/2022 12:45:00 PM 6.7565 12.5105
4/26/2022 1:00:00 PM 6.7603 12.2873
4/26/2022 1:15:00 PM 6.7601 12.338
4/26/2022 1:30:00 PM 6.7605 12.4304
4/26/2022 1:45:00 PM 6.7604 12.6376
4/26/2022 2:00:00 PM 6.7605 12.5215
4/26/2022 2:15:00 PM 6.7604 12.5643
4/26/2022 2:30:00 PM 6.7618 12.3615
4/26/2022 2:45:00 PM 6.7654 12.394
4/26/2022 3:00:00 PM 6.7651 12.26
4/26/2022 3:15:00 PM 6.7654 12.3687
4/26/2022 3:30:00 PM 6.7652 12.2963
4/26/2022 3:45:00 PM 6.767 12.5792
4/26/2022 4:00:00 PM 6.7693 12.3642
4/26/2022 4:15:00 PM 6.77 12.2522
4/26/2022 4:30:00 PM 6.7695 11.939
4/26/2022 4:45:00 PM 6.7698 12.0541
4/26/2022 5:00:00 PM 6.7698 11.9936
4/26/2022 5:15:00 PM 6.7702 12.0088
4/26/2022 5:30:00 PM 6.7702 11.8108
4/26/2022 5:45:00 PM 6.7704 11.8
4/26/2022 6:00:00 PM 6.7706 11.7336
4/26/2022 6:15:00 PM 6.7697 11.7314
4/26/2022 6:30:00 PM 6.7699 11.5884
4/26/2022 6:45:00 PM 6.7698 14.2742
4/26/2022 7:00:00 PM 6.7697 13.3358
4/26/2022 7:15:00 PM 6.7683 11.7061
4/26/2022 7:30:00 PM 6.7659 11.3817
4/26/2022 7:45:00 PM 6.7649 11.6403
4/26/2022 8:00:00 PM 6.7649 11.8832
4/26/2022 8:15:00 PM 6.7654 11.9878
4/26/2022 8:30:00 PM 6.7651 11.8879
4/26/2022 8:45:00 PM 6.7662 12
4/26/2022 9:00:00 PM 6.7605 12.2055
4/26/2022 9:15:00 PM 6.7604 12.3858
4/26/2022 9:30:00 PM 6.76 12.3641
4/26/2022 9:45:00 PM 6.76 12.5629
4/26/2022 10:00:00 PM 6.7601 12.6917
4/26/2022 10:15:00 PM 6.7603 12.9071
4/26/2022 10:30:00 PM 6.76 12.4841
4/26/2022 10:45:00 PM 6.7604 12.3177
4/26/2022 11:00:00 PM 6.7602 11.9334
4/26/2022 11:15:00 PM 6.7596 12.2344
4/26/2022 11:30:00 PM 6.7597 12.3175
4/26/2022 11:45:00 PM 6.7578 12.5
4/27/2022 12:00:00 AM 6.7587 12.613
4/27/2022 12:15:00 AM 6.7579 13.1305
4/27/2022 12:30:00 AM 6.7584 13.1122
4/27/2022 12:45:00 AM 6.7591 13.2443
4/27/2022 1:00:00 AM 6.7595 48.8571
4/27/2022 1:15:00 AM 6.7597 13.7617
4/27/2022 1:30:00 AM 6.7599 12.9549
4/27/2022 1:45:00 AM 6.7593 12.7414
4/27/2022 2:00:00 AM 6.76 12.7321
4/27/2022 2:15:00 AM 6.7603 12.7622
4/27/2022 2:30:00 AM 6.7627 12.4017
4/27/2022 2:45:00 AM 6.762 12.2001
4/27/2022 3:00:00 AM 6.7642 16.3759
4/27/2022 3:15:00 AM 6.7648 14.3197
4/27/2022 3:30:00 AM 6.7646 14.0819
4/27/2022 3:45:00 AM 6.7649 14.6368
4/27/2022 4:00:00 AM 6.7651 13.5827
4/27/2022 4:15:00 AM 6.7654 13.0631
4/27/2022 4:30:00 AM 6.7646 12.5856
4/27/2022 4:45:00 AM 6.7655 12.4221
4/27/2022 5:00:00 AM 6.7653 12.4697
4/27/2022 5:15:00 AM 6.7656 12.7099
4/27/2022 5:30:00 AM 6.7649 12.8677
4/27/2022 5:45:00 AM 6.7648 13
4/27/2022 6:00:00 AM 6.7654 12.3362
4/27/2022 6:15:00 AM 6.7653 12.3574
4/27/2022 6:30:00 AM 6.7656 11.9923
4/27/2022 6:45:00 AM 6.7635 13.7088
4/27/2022 7:00:00 AM 6.7625 14.6033
4/27/2022 7:15:00 AM 6.7653 13.853
4/27/2022 7:30:00 AM 6.7652 17.0955
4/27/2022 7:45:00 AM 6.766 11.2671
4/27/2022 8:00:00 AM 6.769 11.6995
4/27/2022 8:15:00 AM 6.77 15.3605
4/27/2022 8:30:00 AM 6.7698 17.056
4/27/2022 8:45:00 AM 6.7704 16.2
4/27/2022 9:00:00 AM 6.7751 14.404
4/27/2022 9:15:00 AM 6.7758 15.9249
4/27/2022 9:30:00 AM 6.7798 16.8233
4/27/2022 9:45:00 AM 6.7822 16.642
4/27/2022 10:00:00 AM 6.7847 13.1498
4/27/2022 10:15:00 AM 6.785 13.3587
4/27/2022 10:30:00 AM 6.7857 13.1114
4/27/2022 10:45:00 AM 6.7897 12.993
4/27/2022 11:00:00 AM 6.7897 12.5037
4/27/2022 11:15:00 AM 6.7898 12.2329
4/27/2022 11:30:00 AM 6.7913 12.2745
4/27/2022 11:45:00 AM 6.7956 12.6
4/27/2022 12:00:00 PM 6.792 15.1126
4/27/2022 12:15:00 PM 6.7956 15.5729
4/27/2022 12:30:00 PM 6.7992 14.0381
4/27/2022 12:45:00 PM 6.8017 13.4008
4/27/2022 1:00:00 PM 6.8021 14.4025
4/27/2022 1:15:00 PM 6.8047 13.748
4/27/2022 1:30:00 PM 6.8078 13.4267
4/27/2022 1:45:00 PM 6.8103 16.4747
4/27/2022 2:00:00 PM 6.8123 18.1387
4/27/2022 2:15:00 PM 6.8138 15.6111
4/27/2022 2:30:00 PM 6.8148 13.4505
4/27/2022 2:45:00 PM 6.8187 12.9595
4/27/2022 3:00:00 PM 6.8214 12.5766
4/27/2022 3:15:00 PM 6.8233 12.6167
4/27/2022 3:30:00 PM 6.8267 12.5094
4/27/2022 3:45:00 PM 6.8287 12.4086
4/27/2022 4:00:00 PM 6.8327 13.1511
4/27/2022 4:15:00 PM 6.8341 13.9081
4/27/2022 4:30:00 PM 6.8381 13.6756
4/27/2022 4:45:00 PM 6.8388 12.7373
4/27/2022 5:00:00 PM 6.8423 12.3552
4/27/2022 5:15:00 PM 6.8431 12.1478
4/27/2022 5:30:00 PM 6.8455 12.1722
4/27/2022 5:45:00 PM 6.846 12.1
4/27/2022 6:00:00 PM 6.848 12.913
4/27/2022 6:15:00 PM 6.8483 12.825
4/27/2022 6:30:00 PM 6.8522 12.3375
4/27/2022 6:45:00 PM 6.8534 11.8037
4/27/2022 7:00:00 PM 6.8525 11.1876
4/27/2022 7:15:00 PM 6.853 11.2076
4/27/2022 7:30:00 PM 6.8531 11.08
4/27/2022 7:45:00 PM 6.8533 11.0869
4/27/2022 8:00:00 PM 6.8531 10.8668
4/27/2022 8:15:00 PM 6.8561 10.7409
4/27/2022 8:30:00 PM 6.8568 10.8345
4/27/2022 8:45:00 PM 6.8558 11.2
4/27/2022 9:00:00 PM 6.8582 11.9167
4/27/2022 9:15:00 PM 6.8577 12.1122
4/27/2022 9:30:00 PM 6.8572 12.1091
4/27/2022 9:45:00 PM 6.857 12.1059
4/27/2022 10:00:00 PM 6.8539 11.8749
4/27/2022 10:15:00 PM 6.8536 11.7735
4/27/2022 10:30:00 PM 6.8532 11.4663
4/27/2022 10:45:00 PM 6.8535 11.3956
4/27/2022 11:00:00 PM 6.854 11.1224
4/27/2022 11:15:00 PM 6.8541 10.9477
4/27/2022 11:30:00 PM 6.8552 10.9014
4/27/2022 11:45:00 PM 6.853 11
4/28/2022 12:00:00 AM 6.8559 11.0357
4/28/2022 12:15:00 AM 6.8553 11.1078
4/28/2022 12:30:00 AM 6.8549 11.3333
4/28/2022 12:45:00 AM 6.8548 11.6307
4/28/2022 1:00:00 AM 6.8562 11.4898
4/28/2022 1:15:00 AM 6.8577 11.5854
4/28/2022 1:30:00 AM 6.8579 11.8194
4/28/2022 1:45:00 AM 6.8581 12.7316
4/28/2022 2:00:00 AM 6.8584 12.9036
4/28/2022 2:15:00 AM 6.8577 12.4436
4/28/2022 2:30:00 AM 6.858 11.8322
4/28/2022 2:45:00 AM 6.86 11.5999
4/28/2022 3:00:00 AM 6.8583 11.194
4/28/2022 3:15:00 AM 6.8579 10.9392
4/28/2022 3:30:00 AM 6.858 10.8259
4/28/2022 3:45:00 AM 6.8583 11.1108
4/28/2022 4:00:00 AM 6.8584 11.4465
4/28/2022 4:15:00 AM 6.8575 12.0844
4/28/2022 4:30:00 AM 6.8587 12.0449
4/28/2022 4:45:00 AM 6.8579 13.0809
4/28/2022 5:00:00 AM 6.8586 13.6839
4/28/2022 5:15:00 AM 6.8578 13.1218
4/28/2022 5:30:00 AM 6.8578 12.3074
4/28/2022 5:45:00 AM 6.8586 11.9001
4/28/2022 6:00:00 AM 6.8551 10.8831
4/28/2022 6:15:00 AM 6.8536 10.3326
4/28/2022 6:30:00 AM 0 0
4/28/2022 6:45:00 AM 0 0
4/28/2022 7:00:00 AM 0 0
4/28/2022 7:15:00 AM 6.1357 -1.7483
4/28/2022 7:30:00 AM 6.7897 9.5783
4/28/2022 7:45:00 AM 6.7978 9.3439
4/28/2022 8:00:00 AM 6.8161 8.9263
4/28/2022 8:15:00 AM 6.8208 8.715
4/28/2022 8:30:00 AM 6.8191 8.4809
4/28/2022 8:45:00 AM 6.8208 8.4
4/28/2022 9:00:00 AM 6.8306 12.7779
4/28/2022 9:15:00 AM 6.8396 12.5558
4/28/2022 9:30:00 AM 6.8458 12.007
4/28/2022 9:45:00 AM 6.8521 11.7224
4/28/2022 10:00:00 AM 6.8565 11.7536
4/28/2022 10:15:00 AM 6.8614 12.7868
4/28/2022 10:30:00 AM 6.864 15.8932
4/28/2022 10:45:00 AM 6.8681 17.5011
4/28/2022 11:00:00 AM 6.8672 15.5849
4/28/2022 11:15:00 AM 6.863 13.3689
4/28/2022 11:30:00 AM 6.8682 12.355
4/28/2022 11:45:00 AM 6.8656 14.0999
4/28/2022 12:00:00 PM 6.8737 12.8742
4/28/2022 12:15:00 PM 6.8767 13.1475
4/28/2022 12:30:00 PM 6.8798 13.0455
4/28/2022 12:45:00 PM 6.8824 14.636
4/28/2022 1:00:00 PM 6.8845 14.7983
4/28/2022 1:15:00 PM 6.887 14.1529
4/28/2022 1:30:00 PM 6.8886 13.4521
4/28/2022 1:45:00 PM 6.8909 14.9836
4/28/2022 2:00:00 PM 6.8915 15.7349
4/28/2022 2:15:00 PM 6.8951 14.0115
4/28/2022 2:30:00 PM 6.8971 12.981
4/28/2022 2:45:00 PM 6.9014 12.659
4/28/2022 3:00:00 PM 6.9053 13.5301
4/28/2022 3:15:00 PM 6.9071 15.0497
4/28/2022 3:30:00 PM 6.911 15.8334
4/28/2022 3:45:00 PM 6.9122 15.6839
4/28/2022 4:00:00 PM 6.9153 17.1822
4/28/2022 4:15:00 PM 6.9187 16.9127
4/28/2022 4:30:00 PM 6.9217 17.8744
4/28/2022 4:45:00 PM 6.9252 16.9236
4/28/2022 5:00:00 PM 6.9259 15.0851
4/28/2022 5:15:00 PM 6.9298 14.1185
4/28/2022 5:30:00 PM 6.9327 13.4551
4/28/2022 5:45:00 PM 6.937 13.3
4/28/2022 6:00:00 PM 6.9382 13.1345
4/28/2022 6:15:00 PM 6.9393 12.7031
4/28/2022 6:30:00 PM 6.9408 12.2697
4/28/2022 6:45:00 PM 6.945 12.0018
4/28/2022 7:00:00 PM 6.9446 11.5759
4/28/2022 7:15:00 PM 6.9471 11.6248
4/28/2022 7:30:00 PM 6.9494 12.1148
4/28/2022 7:45:00 PM 6.949 11.7988
4/28/2022 8:00:00 PM 6.9495 11.3274
4/28/2022 8:15:00 PM 6.9494 11.2557
4/28/2022 8:30:00 PM 6.9494 11.3407
4/28/2022 8:45:00 PM 6.9468 11.2
4/28/2022 9:00:00 PM 6.9495 11.4322
4/28/2022 9:15:00 PM 6.9498 11.4718
4/28/2022 9:30:00 PM 6.9476 11.3153
4/28/2022 9:45:00 PM 6.9452 11.3947
4/28/2022 10:00:00 PM 6.945 11.1441
4/28/2022 10:15:00 PM 6.9445 11.3255
4/28/2022 10:30:00 PM 6.9413 10.9799
4/28/2022 10:45:00 PM 6.9396 10.9455
4/28/2022 11:00:00 PM 6.9396 11.0011
4/28/2022 11:15:00 PM 6.9375 10.8967
4/28/2022 11:30:00 PM 6.9349 11.0004
4/28/2022 11:45:00 PM 6.937 10.8999
4/29/2022 12:00:00 AM 6.9305 10.7817
4/29/2022 12:15:00 AM 6.9305 10.8888
4/29/2022 12:30:00 AM 6.9294 10.7347
4/29/2022 12:45:00 AM 6.9261 11.1208
4/29/2022 1:00:00 AM 6.9252 10.8481
4/29/2022 1:15:00 AM 6.925 10.9682
4/29/2022 1:30:00 AM 6.923 10.7841
4/29/2022 1:45:00 AM 6.9219 10.9335
4/29/2022 2:00:00 AM 6.921 10.891
4/29/2022 2:15:00 AM 6.9205 10.7622
4/29/2022 2:30:00 AM 6.921 10.6727
4/29/2022 2:45:00 AM 6.9216 11.2
4/29/2022 3:00:00 AM 6.9191 11.5284
4/29/2022 3:15:00 AM 6.9165 11.7892
4/29/2022 3:30:00 AM 6.9159 12.4235
4/29/2022 3:45:00 AM 6.9156 12.7579
4/29/2022 4:00:00 AM 6.9156 11.4898
4/29/2022 4:15:00 AM 6.9147 11.0158
4/29/2022 4:30:00 AM 6.9109 10.579
4/29/2022 4:45:00 AM 6.9108 10.392
4/29/2022 5:00:00 AM 6.9104 9.9065
4/29/2022 5:15:00 AM 6.9105 9.8719
4/29/2022 5:30:00 AM 6.9083 9.7386
4/29/2022 5:45:00 AM 6.9076 9.7
4/29/2022 6:00:00 AM 6.909 9.6045
4/29/2022 6:15:00 AM 6.9081 9.6595
4/29/2022 6:30:00 AM 6.9064 9.6007
4/29/2022 6:45:00 AM 6.9062 9.5937
4/29/2022 7:00:00 AM 6.9064 9.6371
4/29/2022 7:15:00 AM 6.9079 9.784
4/29/2022 7:30:00 AM 6.9082 9.462
4/29/2022 7:45:00 AM 6.907 9.4116
4/29/2022 8:00:00 AM 6.9066 9.4401
4/29/2022 8:15:00 AM 6.9063 9.6528
4/29/2022 8:30:00 AM 6.9066 9.5236
4/29/2022 8:45:00 AM 6.9076 9.5001
4/29/2022 9:00:00 AM 6.9085 10.2835
4/29/2022 9:15:00 AM 6.9059 10.021
4/29/2022 9:30:00 AM 6.9064 10.5867
4/29/2022 9:45:00 AM 6.9062 11.7036
4/29/2022 10:00:00 AM 6.9081 11.8248
4/29/2022 10:15:00 AM 6.9082 11.2838
4/29/2022 10:30:00 AM 6.9108 10.3862
4/29/2022 10:45:00 AM 6.9108 11.8276
4/29/2022 11:00:00 AM 6.911 11.8354
4/29/2022 11:15:00 AM 6.9108 10.381
4/29/2022 11:30:00 AM 6.9111 10.1261
4/29/2022 11:45:00 AM 6.9132 10
4/29/2022 12:00:00 PM 6.9112 11.291
4/29/2022 12:15:00 PM 6.9119 10.9488
4/29/2022 12:30:00 PM 6.9149 10.9603
4/29/2022 12:45:00 PM 6.915 12.1264
4/29/2022 1:00:00 PM 6.915 14.3304
4/29/2022 1:15:00 PM 6.9158 15.8708
4/29/2022 1:30:00 PM 6.9159 17.5743
4/29/2022 1:45:00 PM 6.9167 15.7046
4/29/2022 2:00:00 PM 6.919 12.9476
4/29/2022 2:15:00 PM 6.9215 12.1171
4/29/2022 2:30:00 PM 6.9257 11.8226
4/29/2022 2:45:00 PM 6.9268 11.1879
4/29/2022 3:00:00 PM 6.9304 10.5144
4/29/2022 3:15:00 PM 6.933 11.0241
4/29/2022 3:30:00 PM 6.9354 11.3418
4/29/2022 3:45:00 PM 6.9403 10.8278
4/29/2022 4:00:00 PM 6.9409 10.6158
4/29/2022 4:15:00 PM 6.9452 10.7091
4/29/2022 4:30:00 PM 6.9489 10.4686
4/29/2022 4:45:00 PM 6.9499 10.729
4/29/2022 5:00:00 PM 6.9534 10.0197
4/29/2022 5:15:00 PM 6.955 10.2612
4/29/2022 5:30:00 PM 6.9589 10.0828
4/29/2022 5:45:00 PM 6.9608 10.5
4/29/2022 6:00:00 PM 6.9624 10.9797
4/29/2022 6:15:00 PM 6.9638 10.6926
4/29/2022 6:30:00 PM 6.9664 10.5037
4/29/2022 6:45:00 PM 6.9678 10.6189
4/29/2022 7:00:00 PM 6.9684 10.1267
4/29/2022 7:15:00 PM 6.9692 9.8827
4/29/2022 7:30:00 PM 6.9727 9.6129
4/29/2022 7:45:00 PM 6.9729 9.5309
4/29/2022 8:00:00 PM 6.9721 9.1557
4/29/2022 8:15:00 PM 6.9706 9.0753
4/29/2022 8:30:00 PM 6.9684 9.0464
4/29/2022 8:45:00 PM 6.9692 9
4/29/2022 9:00:00 PM 6.9678 9.3158
4/29/2022 9:15:00 PM 6.9642 9.3695
4/29/2022 9:30:00 PM 6.9632 9.0746
4/29/2022 9:45:00 PM 6.9622 9.2671
4/29/2022 10:00:00 PM 6.9592 9.2924
4/29/2022 10:15:00 PM 6.9592 9.5395
4/29/2022 10:30:00 PM 6.9588 9.266
4/29/2022 10:45:00 PM 6.9577 8.779
4/29/2022 11:00:00 PM 6.9544 8.4741
4/29/2022 11:15:00 PM 6.9537 8.8038
4/29/2022 11:30:00 PM 6.9532 9.2175
4/29/2022 11:45:00 PM 6.951 9
4/30/2022 12:00:00 AM 6.9497 8.6288
4/30/2022 12:15:00 AM 6.9491 8.628
4/30/2022 12:30:00 AM 6.9474 8.4581
4/30/2022 12:45:00 AM 6.9451 8.4706
4/30/2022 1:00:00 AM 6.9449 8.3735
4/30/2022 1:15:00 AM 6.9445 8.4102
4/30/2022 1:30:00 AM 6.9448 8.3166
4/30/2022 1:45:00 AM 6.9422 8.4162
4/30/2022 2:00:00 AM 6.9403 8.4325
4/30/2022 2:15:00 AM 6.9398 9.8188
4/30/2022 2:30:00 AM 6.9397 9.0033
4/30/2022 2:45:00 AM 6.9412 8.6002
4/30/2022 3:00:00 AM 6.9356 8.1889
4/30/2022 3:15:00 AM 6.9348 8.2148
4/30/2022 3:30:00 AM 6.934 8.2461
4/30/2022 3:45:00 AM 6.9325 9.2233
4/30/2022 4:00:00 AM 6.9305 9.0716
4/30/2022 4:15:00 AM 6.9305 8.747
4/30/2022 4:30:00 AM 6.9302 8.5785
4/30/2022 4:45:00 AM 6.9297 8.6653
4/30/2022 5:00:00 AM 6.9298 10.1455
4/30/2022 5:15:00 AM 6.9276 9.7973
4/30/2022 5:30:00 AM 6.9255 9.151
4/30/2022 5:45:00 AM 6.9272 9.4
4/30/2022 6:00:00 AM 6.9255 8.2756
4/30/2022 6:15:00 AM 6.9256 7.9243
4/30/2022 6:30:00 AM 6.9257 7.6715
4/30/2022 6:45:00 AM 6.9256 11.8436
4/30/2022 7:00:00 AM 6.9254 8.709
4/30/2022 7:15:00 AM 6.9253 8.4303
4/30/2022 7:30:00 AM 6.9255 8.0777
4/30/2022 7:45:00 AM 6.9253 8.3655
4/30/2022 8:00:00 AM 6.9254 7.8518
4/30/2022 8:15:00 AM 6.9255 7.8655
4/30/2022 8:30:00 AM 6.9254 7.8069
4/30/2022 8:45:00 AM 6.9272 7.7
4/30/2022 9:00:00 AM 6.9233 7.6349
4/30/2022 9:15:00 AM 6.9213 7.5514
4/30/2022 9:30:00 AM 6.9213 7.4724
4/30/2022 9:45:00 AM 6.9209 7.4816
4/30/2022 10:00:00 AM 6.9208 7.3282
4/30/2022 10:15:00 AM 6.9171 7.3972
4/30/2022 10:30:00 AM 6.9159 7.2428
4/30/2022 10:45:00 AM 6.9159 7.2993
4/30/2022 11:00:00 AM 6.9159 7.1626
4/30/2022 11:15:00 AM 6.9154 7.2586
4/30/2022 11:30:00 AM 6.9161 7.1871
4/30/2022 11:45:00 AM 6.9174 7.1998
4/30/2022 12:00:00 PM 6.9148 7.6604
4/30/2022 12:15:00 PM 6.9142 7.5279
4/30/2022 12:30:00 PM 6.9136 7.3076
4/30/2022 12:45:00 PM 6.9149 7.2303
4/30/2022 1:00:00 PM 6.9161 7.2634
4/30/2022 1:15:00 PM 6.9159 7.3267
4/30/2022 1:30:00 PM 6.9161 7.2361
4/30/2022 1:45:00 PM 6.9168 7.2392
4/30/2022 2:00:00 PM 6.9192 7.2862
4/30/2022 2:15:00 PM 6.9207 7.263
4/30/2022 2:30:00 PM 6.9214 7.097
4/30/2022 2:45:00 PM 6.9247 7.2886
4/30/2022 3:00:00 PM 6.9256 7.2929
4/30/2022 3:15:00 PM 6.9293 7.605
4/30/2022 3:30:00 PM 6.9304 7.1923
4/30/2022 3:45:00 PM 6.9341 7.2157
4/30/2022 4:00:00 PM 6.9349 7.1302
4/30/2022 4:15:00 PM 6.9389 7.2306
4/30/2022 4:30:00 PM 6.9416 6.958
4/30/2022 4:45:00 PM 6.9444 6.7632
4/30/2022 5:00:00 PM 6.9468 6.5653
4/30/2022 5:15:00 PM 6.9498 6.7433
4/30/2022 5:30:00 PM 6.9503 6.5728
4/30/2022 5:45:00 PM 6.9552 6.6
4/30/2022 6:00:00 PM 6.954 6.5702
4/30/2022 6:15:00 PM 6.9588 6.5219
4/30/2022 6:30:00 PM 6.9585 6.4435
4/30/2022 6:45:00 PM 6.9612 6.4904
4/30/2022 7:00:00 PM 6.9629 6.3456
4/30/2022 7:15:00 PM 6.9628 6.3408
4/30/2022 7:30:00 PM 6.9637 6.3348
4/30/2022 7:45:00 PM 6.9639 6.4168
4/30/2022 8:00:00 PM 6.9638 6.338
4/30/2022 8:15:00 PM 6.9629 6.4412
4/30/2022 8:30:00 PM 6.9626 6.6093
4/30/2022 8:45:00 PM 6.965 7
4/30/2022 9:00:00 PM 6.9585 6.9688
4/30/2022 9:15:00 PM 6.9587 7.4344
4/30/2022 9:30:00 PM 6.9583 7.5238
4/30/2022 9:45:00 PM 6.9543 7.3676
4/30/2022 10:00:00 PM 6.954 7.1184
4/30/2022 10:15:00 PM 6.9539 7.4174
4/30/2022 10:30:00 PM 6.9538 7.1868
4/30/2022 10:45:00 PM 6.9516 6.9561
4/30/2022 11:00:00 PM 6.95 6.7845
4/30/2022 11:15:00 PM 6.9497 6.8892
4/30/2022 11:30:00 PM 6.949 6.8344
4/30/2022 11:45:00 PM 6.951 6.8
5/1/2022 12:00:00 AM 6.9476 6.7686
5/1/2022 12:15:00 AM 6.9466 6.9713
5/1/2022 12:30:00 AM 6.9456 7.0445
5/1/2022 12:45:00 AM 6.9451 7.3266
5/1/2022 1:00:00 AM 6.9447 7.0299
5/1/2022 1:15:00 AM 6.9448 6.8925
5/1/2022 1:30:00 AM 6.9447 7.0346
5/1/2022 1:45:00 AM 6.9427 8.149
5/1/2022 2:00:00 AM 6.9405 9.0008
5/1/2022 2:15:00 AM 6.9397 12.3925
5/1/2022 2:30:00 AM 6.94 12.2708
5/1/2022 2:45:00 AM 6.9426 11.3001
5/1/2022 3:00:00 AM 6.9359 8.836
5/1/2022 3:15:00 AM 6.9355 8.2515
5/1/2022 3:30:00 AM 6.9366 7.8494
5/1/2022 3:45:00 AM 6.9351 7.274
5/1/2022 4:00:00 AM 6.9351 6.8776
5/1/2022 4:15:00 AM 6.9352 6.9242
5/1/2022 4:30:00 AM 6.9354 6.8801
5/1/2022 4:45:00 AM 6.9346 6.75
5/1/2022 5:00:00 AM 6.9331 6.925
5/1/2022 5:15:00 AM 6.9306 7.3562
5/1/2022 5:30:00 AM 6.9302 6.5526
5/1/2022 5:45:00 AM 6.9314 6.4
5/1/2022 6:00:00 AM 6.9305 6.1683
5/1/2022 6:15:00 AM 6.9306 6.1208
5/1/2022 6:30:00 AM 6.9303 6.0452
5/1/2022 6:45:00 AM 6.9301 7.1677
5/1/2022 7:00:00 AM 6.9301 6.9196
5/1/2022 7:15:00 AM 6.9305 6.7799
5/1/2022 7:30:00 AM 6.9308 6.6263
5/1/2022 7:45:00 AM 6.9299 6.5216
5/1/2022 8:00:00 AM 6.9304 6.5206
5/1/2022 8:15:00 AM 6.9301 6.4989
5/1/2022 8:30:00 AM 6.9304 6.281
5/1/2022 8:45:00 AM 6.9272 6.3
5/1/2022 9:00:00 AM 6.9307 6.2474
5/1/2022 9:15:00 AM 6.93 6.6106
5/1/2022 9:30:00 AM 6.9303 6.1972
5/1/2022 9:45:00 AM 6.9301 6.2245
5/1/2022 10:00:00 AM 6.93 6.126
5/1/2022 10:15:00 AM 6.9305 6.2048
5/1/2022 10:30:00 AM 6.9304 6.4851
5/1/2022 10:45:00 AM 6.9301 6.5267
5/1/2022 11:00:00 AM 6.9297 6.1876
5/1/2022 11:15:00 AM 6.9288 6.4098
5/1/2022 11:30:00 AM 6.9265 6.5823
5/1/2022 11:45:00 AM 6.9314 6.4
5/1/2022 12:00:00 PM 6.9255 6.1179
5/1/2022 12:15:00 PM 6.9256 6.1759
5/1/2022 12:30:00 PM 6.9257 6.0595
5/1/2022 12:45:00 PM 6.9259 6.1282
5/1/2022 1:00:00 PM 6.9255 6.0586
5/1/2022 1:15:00 PM 6.9257 6.0531
5/1/2022 1:30:00 PM 6.9257 6.0604
5/1/2022 1:45:00 PM 6.9265 6.0758
5/1/2022 2:00:00 PM 6.9305 6.6329
5/1/2022 2:15:00 PM 6.9308 6.6608
5/1/2022 2:30:00 PM 6.9306 6.9783
5/1/2022 2:45:00 PM 6.933 6.4649
5/1/2022 3:00:00 PM 6.9351 6.2393
5/1/2022 3:15:00 PM 6.9381 6.4695
5/1/2022 3:30:00 PM 6.9395 5.9617
5/1/2022 3:45:00 PM 6.9429 5.8929
5/1/2022 4:00:00 PM 6.9463 5.7573
5/1/2022 4:15:00 PM 6.9488 5.8553
5/1/2022 4:30:00 PM 6.953 5.7508
5/1/2022 4:45:00 PM 6.9542 5.8615
5/1/2022 5:00:00 PM 6.9578 5.7968
5/1/2022 5:15:00 PM 6.9587 5.8116
5/1/2022 5:30:00 PM 6.9629 5.7692
5/1/2022 5:45:00 PM 6.965 5.7
5/1/2022 6:00:00 PM 6.9687 5.7645
5/1/2022 6:15:00 PM 6.9707 6.6492
5/1/2022 6:30:00 PM 6.97 16.3487
5/1/2022 6:45:00 PM 6.9642 19.7443
5/1/2022 7:00:00 PM 6.9589 15.7266
5/1/2022 7:15:00 PM 6.9613 12.4329
5/1/2022 7:30:00 PM 6.9638 8.0189
5/1/2022 7:45:00 PM 6.9647 6.8395
5/1/2022 8:00:00 PM 6.968 6.3389
5/1/2022 8:15:00 PM 6.9684 6.8424
5/1/2022 8:30:00 PM 6.9682 6.6939
5/1/2022 8:45:00 PM 6.9706 6.7
5/1/2022 9:00:00 PM 6.9655 7.1909
5/1/2022 9:15:00 PM 6.9647 7.5182
5/1/2022 9:30:00 PM 6.9638 7.2594
5/1/2022 9:45:00 PM 6.9635 7.2896
5/1/2022 10:00:00 PM 6.9633 7.1277
5/1/2022 10:15:00 PM 6.9608 7.4497
5/1/2022 10:30:00 PM 6.9592 7.0536
5/1/2022 10:45:00 PM 6.9586 6.9771
5/1/2022 11:00:00 PM 6.9568 7.1935
5/1/2022 11:15:00 PM 6.9542 7.2179
5/1/2022 11:30:00 PM 6.9517 6.7139
5/1/2022 11:45:00 PM 6.951 6.5
5/2/2022 12:00:00 AM 6.9492 6.6462
5/2/2022 12:15:00 AM 6.949 6.6863
5/2/2022 12:30:00 AM 6.9474 6.3577
5/2/2022 12:45:00 AM 6.9451 6.387
5/2/2022 1:00:00 AM 6.9447 6.4577
5/2/2022 1:15:00 AM 6.9447 6.7125
5/2/2022 1:30:00 AM 6.9425 6.1843
5/2/2022 1:45:00 AM 6.9418 6.4235
5/2/2022 2:00:00 AM 6.9403 6.4483
5/2/2022 2:15:00 AM 6.9401 6.9619
5/2/2022 2:30:00 AM 6.9392 6.6064
5/2/2022 2:45:00 AM 6.9384 6.3001
5/2/2022 3:00:00 AM 6.9354 6.3296
5/2/2022 3:15:00 AM 6.9345 6.319
5/2/2022 3:30:00 AM 6.9327 6.1954
5/2/2022 3:45:00 AM 6.9305 6.32
5/2/2022 4:00:00 AM 6.9304 6.2395
5/2/2022 4:15:00 AM 6.9269 6.3091
5/2/2022 4:30:00 AM 6.9254 6.1741
5/2/2022 4:45:00 AM 6.9254 6.2261
5/2/2022 5:00:00 AM 6.9257 6.0797
5/2/2022 5:15:00 AM 6.9249 6.077
5/2/2022 5:30:00 AM 6.9242 6.0412
5/2/2022 5:45:00 AM 6.9174 5.9
5/2/2022 6:00:00 AM 6.9205 6.7295
5/2/2022 6:15:00 AM 6.9198 6.5498
5/2/2022 6:30:00 AM 6.9195 5.9807
5/2/2022 6:45:00 AM 6.9165 6.3017
5/2/2022 7:00:00 AM 6.9169 6.3153
5/2/2022 7:15:00 AM 6.9176 6.2717
5/2/2022 7:30:00 AM 6.9165 6.1516
5/2/2022 7:45:00 AM 6.9152 6.2459
5/2/2022 8:00:00 AM 6.9158 6.0281
5/2/2022 8:15:00 AM 6.9157 6.1293
5/2/2022 8:30:00 AM 6.9155 6.1382
5/2/2022 8:45:00 AM 6.916 6.2
5/2/2022 9:00:00 AM 6.9155 6.1633
5/2/2022 9:15:00 AM 6.9154 6.7392
5/2/2022 9:30:00 AM 6.9157 6.3667
5/2/2022 9:45:00 AM 6.9156 6.1497
5/2/2022 10:00:00 AM 6.9156 5.9097
5/2/2022 10:15:00 AM 6.9152 5.9525
5/2/2022 10:30:00 AM 6.9155 6.8862
5/2/2022 10:45:00 AM 6.9137 8.3427
5/2/2022 11:00:00 AM 6.9157 6.9481
5/2/2022 11:15:00 AM 6.9155 6.8413
5/2/2022 11:30:00 AM 6.9173 6.2872
5/2/2022 11:45:00 AM 6.916 6.0001
5/2/2022 12:00:00 PM 6.9204 6.0769
5/2/2022 12:15:00 PM 6.9228 6.0961
5/2/2022 12:30:00 PM 6.9243 5.8203
5/2/2022 12:45:00 PM 6.9256 5.7987
5/2/2022 1:00:00 PM 6.929 5.704
5/2/2022 1:15:00 PM 6.9298 5.7449
5/2/2022 1:30:00 PM 6.9315 5.5326
5/2/2022 1:45:00 PM 6.934 5.7442
5/2/2022 2:00:00 PM 6.9351 5.7787
5/2/2022 2:15:00 PM 6.938 5.8186
5/2/2022 2:30:00 PM 6.94 5.7608
5/2/2022 2:45:00 PM 6.941 5.8898
5/2/2022 3:00:00 PM 6.9444 5.6239
5/2/2022 3:15:00 PM 6.9485 5.5947
5/2/2022 3:30:00 PM 6.9517 5.8173
5/2/2022 3:45:00 PM 6.9568 7.5278
5/2/2022 4:00:00 PM 6.9595 20.0698
5/2/2022 4:15:00 PM 6.9639 11.1745
5/2/2022 4:30:00 PM 6.9665 9.3512
5/2/2022 4:45:00 PM 6.9685 8.9517
5/2/2022 5:00:00 PM 6.9678 8.9389
5/2/2022 5:15:00 PM 6.9719 8.7868
5/2/2022 5:30:00 PM 6.973 8.1039
5/2/2022 5:45:00 PM 6.9734 8.5
5/2/2022 6:00:00 PM 6.9772 7.7353
5/2/2022 6:15:00 PM 6.9776 7.5572
5/2/2022 6:30:00 PM 6.9775 7.3993
5/2/2022 6:45:00 PM 6.9787 7.4416
5/2/2022 7:00:00 PM 6.9814 7.4408
5/2/2022 7:15:00 PM 6.9786 7.3057
5/2/2022 7:30:00 PM 6.9785 7.2642
5/2/2022 7:45:00 PM 6.9782 7.1102
5/2/2022 8:00:00 PM 6.9779 6.9218
5/2/2022 8:15:00 PM 6.9786 6.988
5/2/2022 8:30:00 PM 6.977 6.9427
5/2/2022 8:45:00 PM 6.979 6.8
5/2/2022 9:00:00 PM 6.9771 7.0691
5/2/2022 9:15:00 PM 6.9779 7.0455
5/2/2022 9:30:00 PM 6.9775 7.2148
5/2/2022 9:45:00 PM 6.9765 7.2649
5/2/2022 10:00:00 PM 6.9745 6.9701
5/2/2022 10:15:00 PM 6.976 7.288
5/2/2022 10:30:00 PM 6.977 7.2878
5/2/2022 10:45:00 PM 6.9769 7.0512
5/2/2022 11:00:00 PM 6.9774 6.5398
5/2/2022 11:15:00 PM 6.9778 6.2296
5/2/2022 11:30:00 PM 6.9776 6.2991
5/2/2022 11:45:00 PM 6.9776 6.3
5/3/2022 12:00:00 AM 6.976 6.6393
5/3/2022 12:15:00 AM 6.9739 6.2797
5/3/2022 12:30:00 AM 6.973 6.2412
5/3/2022 12:45:00 AM 6.9724 6.1984
5/3/2022 1:00:00 AM 6.9724 6.0895
5/3/2022 1:15:00 AM 6.972 6.1297
5/3/2022 1:30:00 AM 6.9689 6.2777
5/3/2022 1:45:00 AM 6.9686 6.3152
5/3/2022 2:00:00 AM 6.9682 6.6228
5/3/2022 2:15:00 AM 6.9669 6.0652
5/3/2022 2:30:00 AM 6.9645 6.1542
5/3/2022 2:45:00 AM 6.965 6.1999
5/3/2022 3:00:00 AM 6.9633 6.0268
5/3/2022 3:15:00 AM 6.9621 6.4426
5/3/2022 3:30:00 AM 6.9625 6.1472
5/3/2022 3:45:00 AM 6.9597 6.1095
5/3/2022 4:00:00 AM 6.9585 6.0479
5/3/2022 4:15:00 AM 6.9586 6.0997
5/3/2022 4:30:00 AM 6.9556 6.0644
5/3/2022 4:45:00 AM 6.9545 6.0038
5/3/2022 5:00:00 AM 6.9541 6.0265
5/3/2022 5:15:00 AM 6.9541 6.1637
5/3/2022 5:30:00 AM 6.9539 6.0621
5/3/2022 5:45:00 AM 6.9552 5.9
5/3/2022 6:00:00 AM 6.9538 5.8776
5/3/2022 6:15:00 AM 6.9543 5.7158
5/3/2022 6:30:00 AM 6.9524 5.536
5/3/2022 6:45:00 AM 6.9497 5.4431
5/3/2022 7:00:00 AM 6.9493 5.4049
5/3/2022 7:15:00 AM 6.9487 5.267
5/3/2022 7:30:00 AM 6.9496 5.2805
5/3/2022 7:45:00 AM 6.9492 5.4419
5/3/2022 8:00:00 AM 6.9496 5.4379
5/3/2022 8:15:00 AM 6.9489 5.693
5/3/2022 8:30:00 AM 6.949 5.2391
5/3/2022 8:45:00 AM 6.9482 5.2
5/3/2022 9:00:00 AM 6.95 5.1262
5/3/2022 9:15:00 AM 6.9495 5.5688
5/3/2022 9:30:00 AM 6.9496 4.9122
5/3/2022 9:45:00 AM 6.9494 4.8181
5/3/2022 10:00:00 AM 6.9525 4.7375
5/3/2022 10:15:00 AM 6.9534 4.7689
5/3/2022 10:30:00 AM 6.9536 4.7419
5/3/2022 10:45:00 AM 6.9538 4.7564
5/3/2022 11:00:00 AM 6.9541 4.7477
5/3/2022 11:15:00 AM 6.9545 4.6916
5/3/2022 11:30:00 AM 6.9553 4.6139
5/3/2022 11:45:00 AM 6.9552 4.6
5/3/2022 12:00:00 PM 6.9588 4.7328
5/3/2022 12:15:00 PM 6.9602 4.9611
5/3/2022 12:30:00 PM 6.9631 5.0085
5/3/2022 12:45:00 PM 6.9644 4.9864
5/3/2022 1:00:00 PM 6.9681 4.8989
5/3/2022 1:15:00 PM 6.9714 4.9841
5/3/2022 1:30:00 PM 6.9769 4.9521
5/3/2022 1:45:00 PM 6.9819 4.6878
5/3/2022 2:00:00 PM 6.9878 4.5608
5/3/2022 2:15:00 PM 6.9939 4.548
5/3/2022 2:30:00 PM 6.9984 4.5114
5/3/2022 2:45:00 PM 7.0031 4.5469
5/3/2022 3:00:00 PM 7.0076 4.5459
5/3/2022 3:15:00 PM 7.0111 4.5447
5/3/2022 3:30:00 PM 7.0167 4.448
5/3/2022 3:45:00 PM 7.0212 4.4753
5/3/2022 4:00:00 PM 7.0281 4.422
5/3/2022 4:15:00 PM 7.0342 4.4655
5/3/2022 4:30:00 PM 7.0401 4.3856
5/3/2022 4:45:00 PM 7.0463 4.3666
5/3/2022 5:00:00 PM 7.0512 4.4335
5/3/2022 5:15:00 PM 7.0557 4.4896
5/3/2022 5:30:00 PM 7.0607 4.5229
5/3/2022 5:45:00 PM 7.0644 4.4001
5/3/2022 6:00:00 PM 7.0671 4.3773
5/3/2022 6:15:00 PM 7.0697 4.3575
5/3/2022 6:30:00 PM 7.0705 4.336
5/3/2022 6:45:00 PM 7.0734 4.497
5/3/2022 7:00:00 PM 7.0738 4.5261
5/3/2022 7:15:00 PM 7.0739 4.641
5/3/2022 7:30:00 PM 7.0746 4.6178
5/3/2022 7:45:00 PM 7.0748 4.5765
5/3/2022 8:00:00 PM 7.0747 4.4879
5/3/2022 8:15:00 PM 7.0742 4.6032
5/3/2022 8:30:00 PM 7.0742 4.5343
5/3/2022 8:45:00 PM 7.0714 4.5
5/3/2022 9:00:00 PM 7.0695 5.4986
5/3/2022 9:15:00 PM 7.0665 5.5924
5/3/2022 9:30:00 PM 7.0626 5.531
5/3/2022 9:45:00 PM 7.0599 5.5523
5/3/2022 10:00:00 PM 7.0571 5.522
5/3/2022 10:15:00 PM 7.0541 5.541
5/3/2022 10:30:00 PM 7.0501 5.4624
5/3/2022 10:45:00 PM 7.048 5.4556
5/3/2022 11:00:00 PM 7.0448 5.3755
5/3/2022 11:15:00 PM 7.041 5.4785
5/3/2022 11:30:00 PM 7.0402 5.4718
5/3/2022 11:45:00 PM 7.0406 5.6
5/4/2022 12:00:00 AM 7.0355 5.3832
5/4/2022 12:15:00 AM 7.0322 6.8144
5/4/2022 12:30:00 AM 7.0308 6.604
5/4/2022 12:45:00 AM 7.0312 6.2486
5/4/2022 1:00:00 AM 7.0277 6.1082
5/4/2022 1:15:00 AM 7.0259 6.1694
5/4/2022 1:30:00 AM 7.0253 6.4485
5/4/2022 1:45:00 AM 7.0211 6.4865
5/4/2022 2:00:00 AM 7.0198 6.6357
5/4/2022 2:15:00 AM 7.0166 6.3697
5/4/2022 2:30:00 AM 7.0157 6.2388
5/4/2022 2:45:00 AM 7.0182 6.4
5/4/2022 3:00:00 AM 7.0117 6.1408
5/4/2022 3:15:00 AM 7.0101 6.1511
5/4/2022 3:30:00 AM 7.0067 6.1344
5/4/2022 3:45:00 AM 7.0055 6.2205
5/4/2022 4:00:00 AM 7.0018 6.2505
5/4/2022 4:15:00 AM 7.0015 6.2127
5/4/2022 4:30:00 AM 7.0002 6.1852
5/4/2022 4:45:00 AM 6.9971 7.0048
5/4/2022 5:00:00 AM 6.9967 6.9543
5/4/2022 5:15:00 AM 6.995 7.2433
5/4/2022 5:30:00 AM 6.9921 6.459
5/4/2022 5:45:00 AM 6.9916 6
5/4/2022 6:00:00 AM 6.9912 5.7663
5/4/2022 6:15:00 AM 6.9878 5.4588
5/4/2022 6:30:00 AM 6.9874 5.4169
5/4/2022 6:45:00 AM 6.9846 5.3498
5/4/2022 7:00:00 AM 6.9825 5.363
5/4/2022 7:15:00 AM 6.9826 5.3455
5/4/2022 7:30:00 AM 6.9806 5.3402
5/4/2022 7:45:00 AM 6.9775 5.2973
5/4/2022 8:00:00 AM 6.9776 5.2435
5/4/2022 8:15:00 AM 6.9742 5.4153
5/4/2022 8:30:00 AM 6.9729 5.1461
5/4/2022 8:45:00 AM 6.9748 5.2
5/4/2022 9:00:00 AM 6.9729 5.0318
5/4/2022 9:15:00 AM 6.9722 5.02
5/4/2022 9:30:00 AM 6.97 4.9466
5/4/2022 9:45:00 AM 6.9685 4.9846
5/4/2022 10:00:00 AM 6.9686 5.0502
5/4/2022 10:15:00 AM 6.9702 5.2133
5/4/2022 10:30:00 AM 6.9717 8.9323
5/4/2022 10:45:00 AM 6.9733 6.0203
5/4/2022 11:00:00 AM 6.9729 5.1141
5/4/2022 11:15:00 AM 6.9731 4.9235
5/4/2022 11:30:00 AM 6.9739 4.8051
5/4/2022 11:45:00 AM 6.9804 4.8
5/4/2022 12:00:00 PM 6.9784 4.7169
5/4/2022 12:15:00 PM 6.9818 4.7048
5/4/2022 12:30:00 PM 6.9845 4.6535
5/4/2022 12:45:00 PM 6.9872 4.8109
5/4/2022 1:00:00 PM 6.9908 4.8082
5/4/2022 1:15:00 PM 6.9938 4.7093
5/4/2022 1:30:00 PM 6.9966 4.6725
5/4/2022 1:45:00 PM 6.9994 4.648
5/4/2022 2:00:00 PM 7.0045 4.5443
5/4/2022 2:15:00 PM 7.0079 4.5776
5/4/2022 2:30:00 PM 7.0126 4.571
5/4/2022 2:45:00 PM 7.0162 4.5812
5/4/2022 3:00:00 PM 7.0208 4.5409
5/4/2022 3:15:00 PM 7.0245 4.5815
5/4/2022 3:30:00 PM 7.0268 4.5411
5/4/2022 3:45:00 PM 7.0308 4.5687
5/4/2022 4:00:00 PM 7.0356 4.4939
5/4/2022 4:15:00 PM 7.042 4.4486
5/4/2022 4:30:00 PM 7.0468 4.4096
5/4/2022 4:45:00 PM 7.05 4.4449
5/4/2022 5:00:00 PM 7.0538 4.7216
5/4/2022 5:15:00 PM 7.0579 4.73
5/4/2022 5:30:00 PM 7.0602 4.5015
5/4/2022 5:45:00 PM 7.056 4.7
5/4/2022 6:00:00 PM 7.0637 4.5714
5/4/2022 6:15:00 PM 7.0647 4.5984
5/4/2022 6:30:00 PM 7.0651 4.6784
5/4/2022 6:45:00 PM 7.0644 5.3774
5/4/2022 7:00:00 PM 7.0642 4.9631
5/4/2022 7:15:00 PM 7.0639 4.8542
5/4/2022 7:30:00 PM 7.0642 4.855
5/4/2022 7:45:00 PM 7.0637 4.7908
5/4/2022 8:00:00 PM 7.0605 4.8279
5/4/2022 8:15:00 PM 7.0596 5.2723
5/4/2022 8:30:00 PM 7.0577 6.1282
5/4/2022 8:45:00 PM 7.0532 7.5
5/4/2022 9:00:00 PM 7.0545 6.2433
5/4/2022 9:15:00 PM 7.054 5.5326
5/4/2022 9:30:00 PM 7.0531 5.3854
5/4/2022 9:45:00 PM 7.0502 5.5244
5/4/2022 10:00:00 PM 7.0483 5.5015
5/4/2022 10:15:00 PM 7.0452 5.405
5/4/2022 10:30:00 PM 7.0444 6.4049
5/4/2022 10:45:00 PM 7.0409 6.4144
5/4/2022 11:00:00 PM 7.0386 7.0213
5/4/2022 11:15:00 PM 7.0353 6.2833
5/4/2022 11:30:00 PM 7.0336 6.2496
5/4/2022 11:45:00 PM 7.0322 5.9001
5/5/2022 12:00:00 AM 7.0287 5.9178
5/5/2022 12:15:00 AM 7.0261 5.5764
5/5/2022 12:30:00 AM 7.0236 5.445
5/5/2022 12:45:00 AM 7.0207 5.6339
5/5/2022 1:00:00 AM 7.0176 6.3304
5/5/2022 1:15:00 AM 7.0152 6.0336
5/5/2022 1:30:00 AM 7.0114 6.099
5/5/2022 1:45:00 AM 7.0101 5.8722
5/5/2022 2:00:00 AM 7.0061 5.5756
5/5/2022 2:15:00 AM 7.0064 5.4519
5/5/2022 2:30:00 AM 7.0022 5.3263
5/5/2022 2:45:00 AM 7.0028 5.3
5/5/2022 3:00:00 AM 7.0006 5.4355
5/5/2022 3:15:00 AM 6.9968 5.5305
5/5/2022 3:30:00 AM 6.997 5.3641
5/5/2022 3:45:00 AM 6.9946 5.7132
5/5/2022 4:00:00 AM 6.992 6.806
5/5/2022 4:15:00 AM 6.9919 5.9389
5/5/2022 4:30:00 AM 6.991 6.4261
5/5/2022 4:45:00 AM 6.9875 6.1151
5/5/2022 5:00:00 AM 6.9874 5.8741
5/5/2022 5:15:00 AM 6.9874 5.6601
5/5/2022 5:30:00 AM 6.987 5.4687
5/5/2022 5:45:00 AM 6.9874 5.5
5/5/2022 6:00:00 AM 6.9867 5.756
5/5/2022 6:15:00 AM 6.9873 5.197
5/5/2022 6:30:00 AM 6.9875 4.994
5/5/2022 6:45:00 AM 6.9874 4.8932
5/5/2022 7:00:00 AM 6.9874 4.9219
5/5/2022 7:15:00 AM 6.9873 4.8638
5/5/2022 7:30:00 AM 6.9872 5.9761
5/5/2022 7:45:00 AM 6.9871 6.5248
5/5/2022 8:00:00 AM 6.9872 5.4804
5/5/2022 8:15:00 AM 6.9875 5.0525
5/5/2022 8:30:00 AM 6.9912 4.8533
5/5/2022 8:45:00 AM 6.9944 4.7
5/5/2022 9:00:00 AM 6.9931 4.7137
5/5/2022 9:15:00 AM 6.997 4.5928
5/5/2022 9:30:00 AM 6.9974 4.5219
5/5/2022 9:45:00 AM 7.0016 4.5632
5/5/2022 10:00:00 AM 7.0023 4.4563
5/5/2022 10:15:00 AM 7.0066 4.3939
5/5/2022 10:30:00 AM 7.0085 4.4334
5/5/2022 10:45:00 AM 7.0109 4.4214
5/5/2022 11:00:00 AM 7.0116 4.3897
5/5/2022 11:15:00 AM 7.0157 4.4308
5/5/2022 11:30:00 AM 7.0201 4.5042
5/5/2022 11:45:00 AM 7.021 4.6
5/5/2022 12:00:00 PM 7.0257 4.464
5/5/2022 12:15:00 PM 7.0291 4.3325
5/5/2022 12:30:00 PM 7.0331 4.4178
5/5/2022 12:45:00 PM 7.0378 4.4031
5/5/2022 1:00:00 PM 7.0423 4.4075
5/5/2022 1:15:00 PM 7.0482 4.5117
5/5/2022 1:30:00 PM 7.0549 4.2904
5/5/2022 1:45:00 PM 7.0615 4.2228
5/5/2022 2:00:00 PM 7.0692 4.1685
5/5/2022 2:15:00 PM 7.0774 4.2862
5/5/2022 2:30:00 PM 7.086 4.235
5/5/2022 2:45:00 PM 7.0944 4.154
5/5/2022 3:00:00 PM 7.1042 4.1608
5/5/2022 3:15:00 PM 7.114 4.1856
5/5/2022 3:30:00 PM 7.1235 4.1785
5/5/2022 3:45:00 PM 7.1332 4.1896
5/5/2022 4:00:00 PM 7.1435 4.162
5/5/2022 4:15:00 PM 7.1528 4.2555
5/5/2022 4:30:00 PM 7.1626 4.1433
5/5/2022 4:45:00 PM 7.1741 4.1501
5/5/2022 5:00:00 PM 7.1842 4.1725
5/5/2022 5:15:00 PM 7.1945 4.2515
5/5/2022 5:30:00 PM 7.2009 4.1957
5/5/2022 5:45:00 PM 7.2044 4.2
5/5/2022 6:00:00 PM 7.2152 4.1382
5/5/2022 6:15:00 PM 7.2218 4.0925
5/5/2022 6:30:00 PM 7.2268 4.0359
5/5/2022 6:45:00 PM 7.233 4.0366
5/5/2022 7:00:00 PM 7.2363 4.0625
5/5/2022 7:15:00 PM 7.2384 4.11
5/5/2022 7:30:00 PM 7.2384 4.2142
5/5/2022 7:45:00 PM 7.2385 4.0881
5/5/2022 8:00:00 PM 7.2383 4.1529
5/5/2022 8:15:00 PM 7.2385 4.2634
5/5/2022 8:30:00 PM 7.2351 4.3015
5/5/2022 8:45:00 PM 7.2338 4.4
5/5/2022 9:00:00 PM 7.2256 5.1048
5/5/2022 9:15:00 PM 7.2205 5.3207
5/5/2022 9:30:00 PM 7.2174 6.0722
5/5/2022 9:45:00 PM 7.2131 5.6787
5/5/2022 10:00:00 PM 7.2093 5.2723
5/5/2022 10:15:00 PM 7.2068 5.3045
5/5/2022 10:30:00 PM 7.2041 5.2046
5/5/2022 10:45:00 PM 7.201 5.1416
5/5/2022 11:00:00 PM 7.199 5.1075
5/5/2022 11:15:00 PM 7.1948 6.116
5/5/2022 11:30:00 PM 7.194 5.9542
5/5/2022 11:45:00 PM 7.1932 5.5
5/6/2022 12:00:00 AM 7.1849 5.3708
5/6/2022 12:15:00 AM 7.1811 5.4961
5/6/2022 12:30:00 AM 7.1767 5.4146
5/6/2022 12:45:00 AM 7.1732 5.4337
5/6/2022 1:00:00 AM 7.1685 5.4186
5/6/2022 1:15:00 AM 7.1632 5.4773
5/6/2022 1:30:00 AM 7.1577 5.7428
5/6/2022 1:45:00 AM 7.153 5.5028
5/6/2022 2:00:00 AM 7.1475 5.5739
5/6/2022 2:15:00 AM 7.1428 5.8827
5/6/2022 2:30:00 AM 7.1367 6.2691
5/6/2022 2:45:00 AM 7.1358 5.9999
5/6/2022 3:00:00 AM 7.1271 5.4219
5/6/2022 3:15:00 AM 7.1234 5.4499
5/6/2022 3:30:00 AM 7.119 5.673
5/6/2022 3:45:00 AM 7.1155 5.3154
5/6/2022 4:00:00 AM 7.1123 5.2235
5/6/2022 4:15:00 AM 7.1077 5.8221
5/6/2022 4:30:00 AM 7.1039 5.3219
5/6/2022 4:45:00 AM 7.1005 5.2417
5/6/2022 5:00:00 AM 7.0979 5.7455
5/6/2022 5:15:00 AM 7.0937 5.3965
5/6/2022 5:30:00 AM 7.0928 5.0421
5/6/2022 5:45:00 AM 7.0854 5
5/6/2022 6:00:00 AM 7.0867 5.0316
5/6/2022 6:15:00 AM 7.0833 5.6738
5/6/2022 6:30:00 AM 7.0786 6.0384
5/6/2022 6:45:00 AM 7.0786 5.1046
5/6/2022 7:00:00 AM 7.0752 5.7178
5/6/2022 7:15:00 AM 7.0734 5.7665
5/6/2022 7:30:00 AM 7.0702 5.2821
5/6/2022 7:45:00 AM 7.0689 5.0097
5/6/2022 8:00:00 AM 7.0687 5.2317
5/6/2022 8:15:00 AM 7.0646 5.3622
5/6/2022 8:30:00 AM 7.0643 5.003
5/6/2022 8:45:00 AM 7.0602 4.8001
5/6/2022 9:00:00 AM 7.0593 4.536
5/6/2022 9:15:00 AM 7.0592 4.7056
5/6/2022 9:30:00 AM 7.0596 4.7066
5/6/2022 9:45:00 AM 7.0595 4.5666
5/6/2022 10:00:00 AM 7.0594 4.4895
5/6/2022 10:15:00 AM 7.0618 4.4409
5/6/2022 10:30:00 AM 7.0642 4.3311
5/6/2022 10:45:00 AM 7.0639 4.2746
5/6/2022 11:00:00 AM 7.0651 4.3129
5/6/2022 11:15:00 AM 7.0683 4.2883
5/6/2022 11:30:00 AM 7.0682 4.1549
5/6/2022 11:45:00 AM 7.07 4.2
5/6/2022 12:00:00 PM 7.0723 4.184
5/6/2022 12:15:00 PM 7.0737 4.1925
5/6/2022 12:30:00 PM 7.0734 4.1854
5/6/2022 12:45:00 PM 7.0757 4.1508
5/6/2022 1:00:00 PM 7.0783 4.2783
5/6/2022 1:15:00 PM 7.0831 4.0529
5/6/2022 1:30:00 PM 7.0865 4.0315
5/6/2022 1:45:00 PM 7.09 4.074
5/6/2022 2:00:00 PM 7.0947 4.0429
5/6/2022 2:15:00 PM 7.0991 5.0824
5/6/2022 2:30:00 PM 7.105 5.0215
5/6/2022 2:45:00 PM 7.11 4.7775
5/6/2022 3:00:00 PM 7.1159 4.3483
5/6/2022 3:15:00 PM 7.1218 4.0527
5/6/2022 3:30:00 PM 7.1281 3.8995
5/6/2022 3:45:00 PM 7.1335 3.9921
5/6/2022 4:00:00 PM 7.1398 4.0081
5/6/2022 4:15:00 PM 7.1471 3.93
5/6/2022 4:30:00 PM 7.1532 3.8336
5/6/2022 4:45:00 PM 7.1602 3.8798
5/6/2022 5:00:00 PM 7.167 3.8648
5/6/2022 5:15:00 PM 7.1731 3.9642
5/6/2022 5:30:00 PM 7.1789 4.0028
5/6/2022 5:45:00 PM 7.182 4
5/6/2022 6:00:00 PM 7.191 3.8591
5/6/2022 6:15:00 PM 7.1968 3.9458
5/6/2022 6:30:00 PM 7.2027 4.1842
5/6/2022 6:45:00 PM 7.2093 3.8194
5/6/2022 7:00:00 PM 7.2139 3.7539
5/6/2022 7:15:00 PM 7.2176 3.8218
5/6/2022 7:30:00 PM 7.2186 4.0908
5/6/2022 7:45:00 PM 7.2184 3.8067
5/6/2022 8:00:00 PM 7.2192 3.8485
5/6/2022 8:15:00 PM 7.2193 3.9648
5/6/2022 8:30:00 PM 7.2191 4.0305
5/6/2022 8:45:00 PM 7.2184 4.2
5/6/2022 9:00:00 PM 7.214 4.9054
5/6/2022 9:15:00 PM 7.2113 5.6641
5/6/2022 9:30:00 PM 7.2085 5.3826
5/6/2022 9:45:00 PM 7.2046 5.1446
5/6/2022 10:00:00 PM 7.2045 5.0428
5/6/2022 10:15:00 PM 7.2 5.0178
5/6/2022 10:30:00 PM 7.1986 5.1005
5/6/2022 10:45:00 PM 7.1941 5.2034
5/6/2022 11:00:00 PM 7.1898 5.1652
5/6/2022 11:15:00 PM 7.1863 5.0127
5/6/2022 11:30:00 PM 7.1828 5.026
5/6/2022 11:45:00 PM 7.1792 5
5/7/2022 12:00:00 AM 7.1729 5.3468
5/7/2022 12:15:00 AM 7.1676 5.1642
5/7/2022 12:30:00 AM 7.1616 5.086
5/7/2022 12:45:00 AM 7.1562 5.1957
5/7/2022 1:00:00 AM 7.1499 5.2463
5/7/2022 1:15:00 AM 7.1447 5.1378
5/7/2022 1:30:00 AM 7.1405 5.0905
5/7/2022 1:45:00 AM 7.1357 5.2135
5/7/2022 2:00:00 AM 7.131 5.6175
5/7/2022 2:15:00 AM 7.1265 6.0209
5/7/2022 2:30:00 AM 7.1219 7.7292
5/7/2022 2:45:00 AM 7.1246 7.4001
5/7/2022 3:00:00 AM 7.1152 4.8945
5/7/2022 3:15:00 AM 7.111 4.9561
5/7/2022 3:30:00 AM 7.1072 6.5913
5/7/2022 3:45:00 AM 7.1045 6.1251
5/7/2022 4:00:00 AM 7.1017 6.1956
5/7/2022 4:15:00 AM 7.0983 6.4025
5/7/2022 4:30:00 AM 7.0958 5.8757
5/7/2022 4:45:00 AM 7.093 6.4218
5/7/2022 5:00:00 AM 7.0888 6.6254
5/7/2022 5:15:00 AM 7.0885 5.3129
5/7/2022 5:30:00 AM 7.0843 4.9171
5/7/2022 5:45:00 AM 7.0812 5.1
5/7/2022 6:00:00 AM 7.0805 4.9959
5/7/2022 6:15:00 AM 7.0784 6.3028
5/7/2022 6:30:00 AM 7.0746 6.0289
5/7/2022 6:45:00 AM 7.0739 4.9368
5/7/2022 7:00:00 AM 7.0696 4.6985
5/7/2022 7:15:00 AM 7.0693 4.7229
5/7/2022 7:30:00 AM 7.0669 4.7133
5/7/2022 7:45:00 AM 7.0645 5.1929
5/7/2022 8:00:00 AM 7.0641 5.2884
5/7/2022 8:15:00 AM 7.064 4.8195
5/7/2022 8:30:00 AM 7.0641 4.6536
5/7/2022 8:45:00 AM 7.063 4.6
5/7/2022 9:00:00 AM 7.0679 4.4609
5/7/2022 9:15:00 AM 7.0704 16.6426
5/7/2022 9:30:00 AM 7.0781 4.6387
5/7/2022 9:45:00 AM 7.0786 4.4636
5/7/2022 10:00:00 AM 7.0816 4.3264
5/7/2022 10:15:00 AM 7.0852 4.291
5/7/2022 10:30:00 AM 7.0886 9.5181
5/7/2022 10:45:00 AM 7.0906 7.6262
5/7/2022 11:00:00 AM 7.0967 4.4282
5/7/2022 11:15:00 AM 7.1021 4.1668
5/7/2022 11:30:00 AM 7.1083 4.3004
5/7/2022 11:45:00 AM 7.1148 4.2
5/7/2022 12:00:00 PM 7.1207 4.4711
5/7/2022 12:15:00 PM 7.1268 5.5413
5/7/2022 12:30:00 PM 7.1324 5.2101
5/7/2022 12:45:00 PM 7.1386 4.6736
5/7/2022 1:00:00 PM 7.1445 4.4617
5/7/2022 1:15:00 PM 7.1518 4.6804
5/7/2022 1:30:00 PM 7.1592 5.0609
5/7/2022 1:45:00 PM 7.1671 4.791
5/7/2022 2:00:00 PM 7.1759 4.5091
5/7/2022 2:15:00 PM 7.1838 4.3825
5/7/2022 2:30:00 PM 7.1937 4.3977
5/7/2022 2:45:00 PM 7.2031 4.306
5/7/2022 3:00:00 PM 7.2144 4.0674
5/7/2022 3:15:00 PM 7.2258 4.2412
5/7/2022 3:30:00 PM 7.237 4.2271
5/7/2022 3:45:00 PM 7.2493 4.1501
5/7/2022 4:00:00 PM 7.261 4.0868
5/7/2022 4:15:00 PM 7.2725 4.1399
5/7/2022 4:30:00 PM 7.2841 4.332
5/7/2022 4:45:00 PM 7.2951 4.3519
5/7/2022 5:00:00 PM 7.3055 4.3076
5/7/2022 5:15:00 PM 7.3163 4.2063
5/7/2022 5:30:00 PM 7.327 4.4056
5/7/2022 5:45:00 PM 7.3346 4.7
5/7/2022 6:00:00 PM 7.3482 4.5842
5/7/2022 6:15:00 PM 7.3573 4.5231
5/7/2022 6:30:00 PM 7.3665 4.1978
5/7/2022 6:45:00 PM 7.3739 4.0046
5/7/2022 7:00:00 PM 7.3817 3.8537
5/7/2022 7:15:00 PM 7.3868 3.7729
5/7/2022 7:30:00 PM 7.3909 3.63
5/7/2022 7:45:00 PM 7.393 3.5574
5/7/2022 8:00:00 PM 7.393 3.4811
5/7/2022 8:15:00 PM 7.3923 3.4424
5/7/2022 8:30:00 PM 7.391 3.4338
5/7/2022 8:45:00 PM 7.3906 3.6
5/7/2022 9:00:00 PM 7.3854 4.0367
5/7/2022 9:15:00 PM 7.3815 4.4983
5/7/2022 9:30:00 PM 7.3771 4.4037
5/7/2022 9:45:00 PM 7.3667 26.0659
5/7/2022 10:00:00 PM 7.3636 6.0978
5/7/2022 10:15:00 PM 7.364 5.2526
5/7/2022 10:30:00 PM 7.3634 4.8618
5/7/2022 10:45:00 PM 7.3587 4.8951
5/7/2022 11:00:00 PM 7.356 4.6906
5/7/2022 11:15:00 PM 7.3533 6.1228
5/7/2022 11:30:00 PM 7.3494 6.5075
5/7/2022 11:45:00 PM 7.35 6.6
5/8/2022 12:00:00 AM 7.3432 6.5928
5/8/2022 12:15:00 AM 7.3386 5.8442
5/8/2022 12:30:00 AM 7.3335 5.0643
5/8/2022 12:45:00 AM 7.3285 4.7709
5/8/2022 1:00:00 AM 7.3232 4.793
5/8/2022 1:15:00 AM 7.3168 4.7527
5/8/2022 1:30:00 AM 7.3111 4.6003
5/8/2022 1:45:00 AM 7.3036 4.8663
5/8/2022 2:00:00 AM 7.2946 5.0152
5/8/2022 2:15:00 AM 7.2867 5.7215
5/8/2022 2:30:00 AM 7.2791 5.7072
5/8/2022 2:45:00 AM 7.2786 5.2
5/8/2022 3:00:00 AM 7.2631 6.3834
5/8/2022 3:15:00 AM 7.2552 4.6567
5/8/2022 3:30:00 AM 7.2469 4.2201
5/8/2022 3:45:00 AM 7.2406 4.2734
5/8/2022 4:00:00 AM 7.2323 5.0655
5/8/2022 4:15:00 AM 7.226 4.8711
5/8/2022 4:30:00 AM 7.22 4.1634
5/8/2022 4:45:00 AM 7.2143 4.452
5/8/2022 5:00:00 AM 7.2094 4.8529
5/8/2022 5:15:00 AM 7.2044 4.8947
5/8/2022 5:30:00 AM 7.1996 4.347
5/8/2022 5:45:00 AM 7.1974 4.2
5/8/2022 6:00:00 AM 7.1906 4.1571
5/8/2022 6:15:00 AM 7.1871 4.1288
5/8/2022 6:30:00 AM 7.1827 4.2846
5/8/2022 6:45:00 AM 7.1785 4.0063
5/8/2022 7:00:00 AM 7.1754 3.8156
5/8/2022 7:15:00 AM 7.1728 3.738
5/8/2022 7:30:00 AM 7.171 3.648
5/8/2022 7:45:00 AM 7.1708 3.6475
5/8/2022 8:00:00 AM 7.1709 3.6397
5/8/2022 8:15:00 AM 7.171 3.544
5/8/2022 8:30:00 AM 7.1723 3.7026
5/8/2022 8:45:00 AM 7.1778 4.1
5/8/2022 9:00:00 AM 7.1774 4.1224
5/8/2022 9:15:00 AM 7.1804 4.0203
5/8/2022 9:30:00 AM 7.1801 3.9807
5/8/2022 9:45:00 AM 7.1841 4.2342
5/8/2022 10:00:00 AM 7.1882 4.5558
5/8/2022 10:15:00 AM 7.1926 4.5818
5/8/2022 10:30:00 AM 7.195 4.4598
5/8/2022 10:45:00 AM 7.1956 4.3478
5/8/2022 11:00:00 AM 7.1984 4.0535
5/8/2022 11:15:00 AM 7.2024 4.0966
5/8/2022 11:30:00 AM 7.2051 4.1477
5/8/2022 11:45:00 AM 7.2072 4.1999
5/8/2022 12:00:00 PM 7.2128 3.9783
5/8/2022 12:15:00 PM 7.2142 3.8769
5/8/2022 12:30:00 PM 7.214 4.3197
5/8/2022 12:45:00 PM 7.216 3.9731
5/8/2022 1:00:00 PM 7.2193 3.9539
5/8/2022 1:15:00 PM 7.2244 3.9199
5/8/2022 1:30:00 PM 7.2294 3.9924
5/8/2022 1:45:00 PM 7.2345 4.2941
5/8/2022 2:00:00 PM 7.2403 4.1971
5/8/2022 2:15:00 PM 7.2457 4.4824
5/8/2022 2:30:00 PM 7.2523 4.9287
5/8/2022 2:45:00 PM 7.261 4.8965
5/8/2022 3:00:00 PM 7.2693 4.6716
5/8/2022 3:15:00 PM 7.2767 5.0113
5/8/2022 3:30:00 PM 7.2877 4.9267
5/8/2022 3:45:00 PM 7.2982 5.0974
5/8/2022 4:00:00 PM 7.309 4.5605
5/8/2022 4:15:00 PM 7.3198 4.4527
5/8/2022 4:30:00 PM 7.3313 4.3118
5/8/2022 4:45:00 PM 7.3427 4.1346
5/8/2022 5:00:00 PM 7.3542 4.0007
5/8/2022 5:15:00 PM 7.3645 4.1196
5/8/2022 5:30:00 PM 7.3748 4.1811
5/8/2022 5:45:00 PM 7.3836 4.1
5/8/2022 6:00:00 PM 7.3978 3.7761
5/8/2022 6:15:00 PM 7.4069 3.7601
5/8/2022 6:30:00 PM 7.4151 3.7849
5/8/2022 6:45:00 PM 7.4211 3.6927
5/8/2022 7:00:00 PM 7.4297 3.7682
5/8/2022 7:15:00 PM 7.4383 3.8779
5/8/2022 7:30:00 PM 7.441 6.5152
5/8/2022 7:45:00 PM 7.4432 4.4061
5/8/2022 8:00:00 PM 7.4417 3.8584
5/8/2022 8:15:00 PM 7.4414 4.2308
5/8/2022 8:30:00 PM 7.439 4.2398
5/8/2022 8:45:00 PM 7.4368 4.2001
5/8/2022 9:00:00 PM 7.4321 3.9111
5/8/2022 9:15:00 PM 7.4275 3.7998
5/8/2022 9:30:00 PM 7.424 3.9503
5/8/2022 9:45:00 PM 7.4207 5.1299
5/8/2022 10:00:00 PM 7.4171 5.1591
5/8/2022 10:15:00 PM 7.416 4.3578
5/8/2022 10:30:00 PM 7.4129 4.1819
5/8/2022 10:45:00 PM 7.4093 4.1526
5/8/2022 11:00:00 PM 7.4042 3.8851
5/8/2022 11:15:00 PM